[[[{"header":{"parameterUnit":"kt","parameterCategory":2,"dx":1,"dy":1,"la1":29.285339999999998,"la2":30.599998999999997,"lo1":-89.70041500000002,"lo2":-87.6738589999976,"nx":112,"ny":82,"refTime":"2022-10-15T00:00:00:Z","depth":0,"parameterNumber":1,"parameterNumberName":"U-component_of_WINDS"},"data":[0.0,0.0,0.0,0.0,0.0,0.0,0.0,0.0,0.043,0.1933,0.1022,0.0435,0.1958,0.1036,0.0,0.0,0.0,0.0,0.0,0.0,0.0,0.0,0.0,0.0,0.0,0.0,0.0,0.0,0.0,0.0,0.0,0.0,0.0,0.0,0.0,0.0,0.0,0.0,0.0,0.0,0.0,0.0,0.0,0.0,0.0,0.0,0.0,0.0,0.0,0.0,0.0,0.0,0.0,0.0,0.0,0.0,0.0,0.0,0.0,0.0,0.0,0.0,0.0,0.0,0.0,0.0,0.0,0.0,0.0,0.0,0.0,0.0,0.0,0.0,0.0,0.0,0.0,0.0,0.0,0.0,0.0,0.0,0.0,0.0,0.0,0.0,0.0,0.0,0.0,0.0,0.0,0.0,0.0,0.0,0.0,0.0,0.0,0.0,0.0,0.0,0.0,0.0,0.0,0.0,0.0,0.1842,0.5652,0.6921,1.0864,1.6918,1.833,2.0172,0.0,0.0,0.0,0.0,0.0,0.0,0.0,0.0,0.0406,0.1981,0.1065,0.0504,0.2049,0.1062,0.0,0.0,0.0,0.0,0.0,0.0,0.0,0.0,0.0,0.0,0.0,0.0,0.0,0.0,0.0,0.0,0.0,0.0,0.0,0.0,0.0,0.0,0.0,0.0,0.0,0.0,0.0,0.0,0.0,0.0,0.0,0.0,0.0,0.0,0.0,0.0,0.0,0.0,0.0,0.0,0.0,0.0,0.0,0.0,0.0,0.0,0.0,0.0,0.0,0.0,0.0,0.0,0.0,0.0,0.0,0.0,0.0,0.0,0.0,0.0,0.0,0.0,0.0,0.0,0.0,0.0,0.0,0.0,0.0,0.0,0.0,0.0,0.0,0.0,0.0,0.0,0.0,0.0,0.0,0.0,0.0,0.0,0.0,0.0,0.0,0.0,0.0,0.0,0.0567,0.1842,0.1842,0.382,0.7485,0.8893,1.1987,1.6918,1.819,2.0172,0.0,0.0,0.0,0.0,0.0,0.0,0.0,0.0,0.0,0.0,0.0,0.0,0.0,0.0,0.0,0.0,0.0,0.0,0.0,0.0,0.0,0.0,0.0,0.0,0.0,0.0,0.0,0.0,0.0,0.0,0.0,0.0,0.0,0.0,0.0,0.0,0.0,0.0,0.0,0.0,0.0,0.0,0.0,0.0,0.0,0.0,0.0,0.0,0.0,0.0,0.0,0.0,0.0,0.0,0.0,0.0,0.0,0.0,0.0,0.0,0.0,0.0,0.0,0.0,0.0,0.0,0.0,0.0,0.0,0.0,0.0,0.0,0.0,0.0,0.0,0.0,0.0,0.0,0.0,0.0,0.0,0.0,0.0,0.0,0.0,0.0,0.0,0.0,0.0,0.0,0.0,0.0,0.0,0.0,0.0,0.0,0.0,0.0,0.0,0.0,0.0,0.0,0.1842,0.5511,0.5652,0.7626,1.1434,1.5085,1.6918,1.7198,2.0877,2.2586,0.0,0.0,0.0,0.0,0.0,0.0,0.0,0.0,0.0,0.0,0.0,0.0,0.0,0.0,0.0,0.0,0.0,0.0,0.0,0.0,0.0,0.0,0.0,0.0,0.0,0.0,0.0,0.0,0.0,0.0,0.0,0.0,0.0,0.0,0.0,0.0,0.0,0.0,0.0,0.0,0.0,0.0,0.0,0.0,0.0,0.0,0.0,0.0,0.0,0.0,0.0,0.0,0.0,0.0,0.0,0.0,0.0,0.0,0.0,0.0,0.0,0.0,0.0,0.0,0.0,0.0,0.0,0.0,0.0,0.0,0.0,0.0,0.0,0.0,0.0,0.0,0.0,0.0,0.0,0.0,0.0,0.0,0.0,0.0,0.0,0.0,0.0,0.0,0.0,0.0,0.0,0.0,0.0,0.0,0.0,0.0,0.0,0.0,0.0,0.0,0.0,0.0,0.1842,0.5511,0.5652,0.8893,1.537,1.6352,1.833,2.1023,2.2021,2.2586,0.0,0.0,0.0,0.0,0.0,0.0,0.0,0.0,0.0,0.0,0.0,0.0,0.0,0.0,0.0,0.0,0.0,0.0,0.0,0.0,0.0,0.0,0.0,0.0,0.0,0.0,0.0,0.0,0.0,0.0,0.0,0.0,0.0,0.0,0.0,0.0,0.0,0.0,0.0,0.0,0.0,0.0,0.0,0.0,0.0,0.0,0.0,0.0,0.0,0.0,0.0,0.0,0.0,0.0,0.0,0.0,0.0,0.0,0.0,0.0,0.0,0.0,0.0,0.0,0.0,0.0,0.0,0.0,0.0,0.0,0.0,0.0,0.0,0.0,0.0,0.0,0.0,0.0,0.0,0.0,0.0,0.0,0.0,0.0,0.0,0.0,0.0,0.0,0.0,0.0,0.0,0.0,0.0,0.0,0.0,0.0,0.0,0.0,0.0,0.0,0.0,0.0,0.2549,0.7908,0.8049,1.1709,1.9321,1.9321,1.9601,2.0172,2.1875,2.1735,-0.0089,-0.0177,-0.0269,-0.0084,0.0,0.0,0.0,0.0,0.0,0.0,0.0,0.0,0.0,0.0,0.0,0.0,0.0,0.0,0.0,0.0,0.0,0.0,0.0,0.0,0.0,0.0,0.0,0.0,0.0,0.0,0.0,0.0,0.0,0.0,0.0,0.0,0.0,0.0,0.0,0.0,0.0,0.0,0.0,0.0,0.0,0.0,0.0,0.0,0.0,0.0,0.0,0.0,0.0,0.0,0.0,0.0,0.0,0.0,0.0,0.0,0.0,0.0,0.0,0.0,0.0,0.0,0.0,0.0,0.0,0.0,0.0,0.0,0.0,0.0,0.0,0.0,0.0,0.0,0.0,0.0,0.0,0.0,0.0,0.0,0.0,0.0,0.0,0.0,0.0,0.0,0.0,0.0,0.0,0.0,0.0,0.0,0.0,0.0,0.0,0.0,0.0,0.0,0.3538,1.1153,1.0868,1.4532,2.2586,2.2161,2.0032,1.6352,1.9746,1.9746,-0.0491,-0.1217,-0.2131,-0.0418,0.0,0.0,0.0,0.0,0.0,0.0,0.0,0.0,0.0,0.0,0.0,0.0,0.0,0.0,0.0,0.0,0.0,0.0,0.0,0.0,0.0,0.0,0.0,0.0,0.0,0.0,0.0,0.0,0.0,0.0,0.0,0.0,0.0,0.0,0.0,0.0,0.0,0.0,0.0,0.0,0.0,0.0,0.0,0.0,0.0,0.0,0.0,0.0,0.0,0.0,0.0,0.0,0.0,0.0,0.0,0.0,0.0,0.0,0.0,0.0,0.0,0.0,0.0,0.0,0.0,0.0,0.0,0.0,0.0,0.0,0.0,0.0,0.0,0.0,0.0,0.0,0.0,0.0,0.0,0.0,0.0,0.0,0.0,0.0,0.0,0.0,0.0,0.0,0.0,0.0,0.0,0.0,0.0,0.0,0.0,0.0,0.0,0.0,0.3538,1.1153,0.8331,1.199,2.2586,1.9461,1.6077,1.2416,1.3123,1.4668,-0.2049,-0.2288,-0.2648,-0.0483,0.0,0.0,0.0,0.0,0.0,0.0,0.0,0.0,0.0,0.0,0.0,0.0,0.0,0.0,0.0,0.0,0.0,0.0,0.0,0.0,0.0,0.0,0.0,0.0,0.0,0.0,0.0,0.0,0.0,0.0,0.0,0.0,0.0,0.0,0.0,0.0,0.0,0.0,0.0,0.0,0.0,0.0,0.0,0.0,0.0,0.0,0.0,0.0,0.0,0.0,0.0,0.0,0.0,0.0,0.0,0.0,0.0,0.0,0.0,0.0,0.0,0.0,0.0,0.0,0.0,0.0,0.0,0.0,0.0,0.0,0.0,0.0,0.0,0.0,0.0,0.0,0.0,0.0,0.0,0.0,0.0,0.0,0.0,0.0,0.0,0.0,0.0,0.0,0.0,0.0,0.0,0.0,0.0,0.0,0.0,0.0,0.0,0.0,0.1842,0.5516,0.5654,0.9315,1.6928,1.3119,1.0298,0.8472,1.0445,1.129,-0.3572,-0.3082,-0.2594,-0.0556,0.0,0.0,0.0,0.0,0.0,0.0,0.0,0.0,0.0,0.0,0.0,0.0,0.0,0.0,0.0,0.0,0.0,0.0,0.0,0.0,0.0,0.0,0.0,0.0,0.0,0.0,0.0,0.0,0.0,0.0,0.0,0.0,0.0,0.0,0.0,0.0,0.0,0.0,0.0,0.0,0.0,0.0,0.0,0.0,0.0,0.0,0.0,0.0,0.0,0.0,0.0,0.0,0.0,0.0,0.0,0.0,0.0,0.0,0.0,0.0,0.0,0.0,0.0,0.0,0.0,0.0,0.0,0.0,0.0,0.0,0.0,0.0,0.0,0.0,0.0,0.0,0.0,0.0,0.0,0.0,0.0,0.0,0.0,0.0,0.0,0.0,0.0,0.0,0.0,0.0,0.0,0.0,0.0,0.0,0.0,0.0,0.0,0.0,0.0,0.0,0.3678,0.7485,1.1293,0.6782,0.4525,0.4666,0.7628,0.791,-0.3582,-0.312,-0.2642,-0.0523,0.0,0.0,0.0,0.0,0.0,0.0,0.0,0.0,0.0,0.0,0.0,0.0,0.0,0.0,0.0,0.0,0.0,0.0,0.0,0.0,0.0,0.0,0.0,0.0,0.0,0.0,0.0,0.0,0.0,0.0,0.0,0.0,0.0,0.0,0.0,0.0,0.0,0.0,0.0,0.0,0.0,0.0,0.0,0.0,0.0,0.0,0.0,0.0,0.0,0.0,0.0,0.0,0.0,0.0,0.0,0.0,0.0,0.0,0.0,0.0,0.0,0.0,0.0,0.0,0.0,0.0,0.0,0.0,0.0,0.0,0.0,0.0,0.0,0.0,0.0,0.0,0.0,0.0,0.0,0.0,0.0,0.0,0.0,0.0,0.0,0.0,0.0,0.0,0.0,0.0,0.0,0.0,0.0,0.0,0.0,0.0,0.0,0.0,0.0,0.0,0.3678,0.7485,1.1293,0.4103,0.0567,0.0567,0.0992,0.2832,-0.357,-0.3099,-0.2594,-0.0514,0.0,0.0,0.0,0.0,0.0,0.0,0.0,0.0,0.0,0.0,0.0,0.0,0.0,0.0,0.0,0.0,0.0,0.0,0.0,0.0,0.0,0.0,0.0,0.0,0.0,0.0,0.0,0.0,0.0,0.0,0.0,0.0,0.0,0.0,0.0,0.0,0.0,0.0,0.0,0.0,0.0,0.0,0.0,0.0,0.0,0.0,0.0,0.0,0.0,0.0,0.0,0.0,0.0,0.0,0.0,0.0,0.0,0.0,0.0,0.0,0.0,0.0,0.0,0.0,0.0,0.0,0.0,0.0,0.0,0.0,0.0,0.0,0.0,0.0,0.0,0.0,0.0,0.0,0.0,0.0,0.0,0.0,0.0,0.0,0.0,0.0,0.0,0.0,0.0,0.0,0.0,0.0,0.0,0.0,0.0,0.0,0.0,0.0,0.0,0.0,0.1558,0.3115,0.4669,0.1559,0.0,0.0,0.0,0.0851,-0.3419,0.0,0.0,0.0,0.0,0.0,0.0,0.0,0.0,0.0,0.0,0.0,0.0,0.0,0.0,0.0,0.0,0.0,0.0,0.0,0.0,0.0,0.0,0.0,0.0,0.0,0.0,0.0,0.0,0.0,0.0,0.0,0.0,0.0,0.0,0.0,0.0,0.0,0.0,0.0,0.0,0.0,0.0,0.0,0.0,0.0,0.0,0.0,0.0,0.0,0.0,0.0,0.0,0.0,0.0,0.0,0.0,0.0,0.0,0.0,0.0,0.0,0.0,0.0,0.0,0.0,0.0,0.0,0.0,0.0,0.0,0.0,0.0,0.0,0.0,0.0,0.0,0.0,0.0,0.0,0.0,0.0,0.0,0.0,0.0,0.0,0.0,0.0,0.0,0.0,0.0,0.0,0.0,0.0,0.0,0.0,0.0,0.0,0.0,0.0,0.0,0.0,0.0,0.0,0.0,0.0,0.0,0.0,0.0,0.0,0.0,0.0,0.0,0.0,0.0,0.0,0.0,0.0,0.0,0.0,0.0,0.0,0.0,0.0,0.0,0.0,0.0,0.0,0.0,0.0,0.0,0.0,0.0,0.0,0.0,0.0,0.0,0.0,0.0,0.0,0.0,0.0,0.0,0.0,0.0,0.0,0.0,0.0,0.0,0.0,0.0,0.0,0.0,0.0,0.0,0.0,0.0,0.0,0.0,0.0,0.0,0.0,0.0,0.0,0.0,0.0,0.0,0.0,0.0,0.0,0.0,0.0,0.0,0.0,0.0,0.0,0.0,0.0,0.0,0.0,0.0,0.0,0.0,0.0,0.0,0.0,0.0,0.0,0.0,0.0,0.0,0.0,0.0,0.0,0.0,0.0,0.0,0.0,0.0,0.0,0.0,0.0,0.0,0.0,0.0,0.0,0.0,0.0,0.0,0.0,0.0,0.0,0.0,0.0,0.0,0.0,0.0,0.0,0.0,0.0,0.0,0.0,0.0,0.0,-0.0996,-0.052,0.0,0.0,0.0,0.0,0.0,0.0,0.0,0.0,0.0,0.0,0.0,0.0,0.0,0.0,0.0,0.0,0.0,0.0,0.0,0.0,0.0,0.0,0.0,0.0,0.0,0.0,0.0,0.0,0.0,0.0,0.0,0.0,0.0,0.0,0.0,0.0,0.0,0.0,0.0,0.0,0.0,0.0,0.0,0.0,0.0,0.0,0.0,0.0,0.0,0.0,0.0,0.0,0.0,0.0,0.0,0.0,0.0,0.0,0.0,0.0,0.0,0.0,0.0,0.0,0.0,0.0,0.0,0.0,0.0,0.0,0.0,0.0,0.0,0.0,0.0,0.0,0.0,0.0,0.0,0.0,0.0,0.0,0.0,0.0,0.0,0.0,0.0,0.0,0.0,0.0,0.0,0.0,0.0,0.0,0.0,0.0,0.0,0.0,0.0,0.0,0.0,0.0,0.0,0.0,0.0,0.0,0.0,0.0,0.0,0.0,0.0,0.0,0.0,0.0,0.0,0.0,0.0,0.0,0.0,0.0,0.0,0.0,0.0,0.0,0.0,0.0,0.0,0.0,0.0,0.0,0.0,0.0,0.0,0.0,0.0,0.0,0.0,0.0,0.0,0.0,0.0,0.0,0.0,0.0,0.0,0.0,0.0,0.0,0.0,0.0,0.0,0.0,0.0,0.0,0.0,0.0,0.0,0.0,0.0,0.0,0.0,0.0,0.0,0.0,0.0,0.0,0.0,0.0,0.0,0.0,0.0,0.0,0.0,0.0,0.0,0.0,0.0,0.0,0.0,0.0,0.0,0.0,0.0,0.0,0.0,0.0,0.0,0.0,0.0,0.0,0.0,0.0,0.0,0.0,0.0,0.0,0.0,0.0,0.0,0.0,0.0,0.0,0.0,0.0,0.0,0.0,0.0,0.0,0.0,0.0,0.0,0.0,0.0,0.0,0.0,0.0,0.0,0.0,0.0,0.0,0.0,0.0,-0.0177,-0.0186,-0.0194,0.0,0.0,0.0,0.0,0.0,0.0,0.0,0.0,0.0,0.0,0.0,0.0,0.0,0.0,0.0,0.0,0.0,0.0,0.0,0.0,0.0,0.0,0.0,0.0,0.0,0.0,0.0,0.0,0.0,0.0,0.0,0.0,0.0,0.0,0.0,0.0,0.0,0.0,0.0,0.0,0.0,0.0,0.0,0.0,0.0,0.0,0.0,0.0,0.0,0.0,0.0,0.0,0.0,0.0,0.0,0.0,0.0,0.0,0.0,0.0,0.0,0.0,0.0,0.0,0.0,0.0,0.0,0.0,0.0,0.0,0.0,0.0,0.0,0.0,0.0,0.0,0.0,0.0,0.0,0.0,0.0,0.0,0.0,0.0,0.0,0.0,0.0,0.0,0.0,0.0,0.0,0.0,0.0,0.0,0.0,0.0,0.0,0.0,0.0,0.0,0.0,0.0,0.0,0.0,0.0,0.0,0.0,0.0,0.0,-0.3011,-0.2925,-0.266,-0.0533,0.0,0.0,0.0,0.0,0.0,0.0,0.0,0.0,0.0,0.0,0.0,0.0,0.0,0.0,0.0,0.0,0.0,0.0,0.0,0.0,0.0,0.0,0.0,0.0,0.0,0.0,0.0,0.0,0.0,0.0,0.0,0.0,0.0,0.0,0.0,0.0,0.0,0.0,0.0,0.0,0.0,0.0,0.0,0.0,0.0,0.0,0.0,0.0,0.0,0.0,0.0,0.0,0.0,0.0,0.0,0.0,0.0,0.0,0.0,0.0,0.0,0.0,0.0,0.0,0.0,0.0,0.0,0.0,0.0,0.0,0.0,0.0,0.0,0.0,0.0,0.0,0.0,0.0,0.0,0.0,0.0,0.0,0.0,0.0,0.0,0.0,0.0,0.0,0.0,0.0,0.0,0.0,0.0,0.0,0.0,0.0,0.0,0.0,0.0,0.0,0.0,0.0,0.0,0.0,0.0,0.0,0.0,0.0,-0.6087,-0.5054,-0.3793,-0.0764,0.0,0.0,0.0,0.0,0.0,0.0,0.0,0.0,0.0,0.0,0.0,0.0,0.0,0.0,0.0,0.0,0.0,0.0,0.0,0.0,0.0,0.0,0.0,0.0,0.0,0.0,0.0,0.0,0.0,0.0,0.0,0.0,0.0,0.0,0.0,0.0,0.0,0.0,0.0,0.0,0.0,0.0,0.0,0.0,0.0,0.0,0.0,0.0,0.0,0.0,0.0,0.0,0.0,0.0,0.0,0.0,0.0,0.0,0.0,0.0,0.0,0.0,0.0,0.0,0.0,0.0,0.0,0.0,0.0,0.0,0.0,0.0,0.0,0.0,0.0,0.0,0.0,0.0,0.0,0.0,0.0,0.0,0.0,0.0,0.0,0.0,0.0,0.0,0.0,0.0,0.0,0.0,0.0,0.0,0.0,0.0,0.0,0.0,0.0,0.0,0.0,0.0,0.0,0.0,0.0,0.0,0.0,0.0,-0.9717,-0.7673,-0.5016,-0.1435,-0.0551,-0.0436,-0.0109,0.0,0.0,0.0,0.0,0.0,0.0,0.0,0.0,0.0,0.0,0.0,0.0,0.0,0.0,0.0,0.0,0.0,0.0,0.0,0.0,0.0,0.0,0.0,0.0,0.0,0.0,0.0,0.0,0.0,0.0,0.0,0.0,0.0,0.0,0.0,0.0,0.0,0.0,0.0,0.0,0.0,0.0,0.0,0.0,0.0,0.0,0.0,0.0,0.0,0.0,0.0,0.0,0.0,0.0,0.0,0.0,0.0,0.0,0.0,0.0,0.0,0.0,0.0,0.0,0.0,0.0,0.0,0.0,0.0,0.0,0.0,0.0,0.0,0.0,0.0,0.0,0.0,0.0,0.0,0.0,0.0,0.0,0.0,0.0,0.0,0.0,0.0,0.0,0.0,0.0,0.0,0.0,0.0,0.0,0.0,0.0,0.0,0.0,0.0,0.0,0.0,0.0,0.0,0.0,0.0,-1.4935,-1.3236,-1.0097,-0.4884,-0.3486,-0.2936,-0.0545,0.0,0.0,0.0,0.0,0.0,0.0,0.0,0.0,0.0,0.0,0.0,0.0,0.0,0.0,0.0,0.0,0.0,0.0,0.0,0.0,0.0,0.0,0.0,0.0,0.0,0.0,0.0,0.0,0.0,0.0,0.0,0.0,0.0,0.0,0.0,0.0,0.0,0.0,0.0,0.0,0.0,0.0,0.0,0.0,0.0,0.0,0.0,0.0,0.0,0.0,0.0,0.0,0.0,0.0,0.0,0.0,0.0,0.0,0.0,0.0,0.0,0.0,0.0,0.0,0.0,0.0,0.0,0.0,0.0,0.0,0.0,0.0,0.0,0.0,0.0,0.0,0.0,0.0,0.0,0.0,0.0,0.0,0.0,0.0,0.0,0.0,0.0,0.0,0.0,0.0,0.0,0.0,0.0,0.0,0.0,0.0,0.0,0.0,0.0,0.0,0.0,0.0,0.0,0.0,0.0,-1.5064,-1.3606,-1.1498,-0.9065,-0.7498,-0.6301,-0.4892,-0.3372,-0.2176,-0.2176,-0.1089,0.0,0.0,0.0,0.0,0.0,0.0,0.0,0.0,0.0,0.0,0.0,0.0,0.0,0.0,0.0,0.0,0.0,0.0,0.0,0.0,0.0,0.0,0.0,0.0,0.0,0.0,0.0,-0.084,-0.2517,-0.2517,-0.2517,-0.2517,-0.2517,-0.1559,0.0,0.0,0.0,0.0,0.0,0.0,0.0,0.0,0.0,0.0,0.0,0.0,0.0,0.0,0.0,0.0,0.0,0.0,0.0,0.0,0.0,0.0,0.0,0.0,0.0,0.0,0.0,0.0,0.0,0.0,0.0,0.0,0.0,0.0,0.0,0.0,0.0,0.0,0.0,0.0,0.0,0.0,0.0,0.0,0.0,0.0,0.0,0.0,0.0,0.0,0.0,0.0,0.0,0.0,0.0,0.0,0.0,0.0,0.0,0.0,0.0,0.0,0.0,0.0,0.0,0.0,0.0,-1.4445,-1.3558,-1.2804,-1.3368,-1.1424,-0.9215,-0.8886,-0.7386,-0.6188,-0.6188,-0.3913,-0.1633,-0.1089,-0.0871,-0.0762,-0.0109,0.0,0.0,0.0,0.0,0.0,0.0,0.0,0.0,0.0,0.0,-0.0218,-0.0871,-0.0871,-0.0871,-0.0871,-0.0882,-0.0673,0.0,0.0,-0.0353,-0.1079,-0.1079,-0.2276,0.0,-0.5503,-0.5145,-0.3831,-0.4548,-0.3114,0.0,0.0,0.0,0.0,0.0,0.0,0.0,0.0,0.0,0.0,0.0,0.0,0.0,0.0,0.0,0.0,0.0,0.0,0.0,0.0,0.0,0.0,0.0,0.0,0.0,0.0,0.0,0.0,0.0,0.0,0.0,0.0,0.0,0.0,0.0,0.0,0.0,0.0,0.0,0.0,0.0,0.0,0.0,0.0,0.0,0.0,0.0,0.0,0.0,0.0,0.0,0.0,0.0,0.0,0.0,0.0,0.0,0.0,0.0,0.0,0.0,0.0,0.0,0.0,0.0,0.0,0.0,-1.5743,-1.5972,-1.626,-1.7146,-1.4377,-1.096,-0.9136,-1.0529,-1.2263,-1.2263,-0.9989,-0.7172,-0.4345,-0.3911,-0.3045,-0.0436,0.0,0.0,0.0,0.0,0.0,0.0,0.0,0.0,0.0,0.0,-0.1089,-0.3695,-0.3911,-0.3911,-0.3911,-0.3917,-0.2655,-0.0114,0.0,-0.1396,-0.4427,-0.4429,-0.4548,-0.4907,-0.777,-0.6101,-0.06,-0.3473,-0.3114,0.0,0.0,0.0,0.0,0.0,0.0,0.0,0.0,0.0,0.0,0.0,0.0,0.0,0.0,0.0,0.0,0.0,0.0,0.0,0.0,0.0,0.0,0.0,0.0,0.0,0.0,0.0,0.0,0.0,0.0,0.0,0.0,0.0,0.0,0.0,0.0,0.0,0.0,0.0,0.0,0.0,0.0,0.0,0.0,0.0,0.0,0.0,0.0,0.0,0.0,0.0,0.0,0.0,0.0,0.0,0.0,0.0,0.0,0.0,0.0,0.0,0.0,0.0,0.0,0.0,0.0,0.0,-1.3166,-1.4029,-1.4998,-1.5348,-1.5115,-1.4548,-1.3645,-1.431,-1.4709,-1.3296,-1.075,-0.7819,-0.478,-0.4237,-0.3369,-0.0436,0.0,0.0,0.0,0.0,0.0,0.0,0.0,0.0,0.0,-0.1524,-0.3045,-0.4237,-0.5973,-0.619,-0.4345,-0.4237,-0.2967,-0.0113,-0.169,-0.3317,-0.4838,-0.6603,-0.7461,-0.7651,-0.8963,-0.6218,-0.012,-0.3353,-0.3114,0.0,0.0,0.0,0.0,0.0,0.0,0.0,0.0,0.0,0.0,0.0,0.0,0.0,0.0,0.0,0.0,0.0,0.0,0.0,0.0,0.0,0.0,0.0,0.0,0.0,0.0,0.0,0.0,0.0,0.0,0.0,0.0,0.0,0.0,0.0,0.0,0.0,0.0,0.0,0.0,0.0,0.0,0.0,0.0,0.0,0.0,0.0,0.0,0.0,0.0,0.0,0.0,0.0,0.0,0.0,0.0,0.0,0.0,0.0,0.0,0.0,0.0,0.0,0.0,0.0,0.0,0.0,-1.1695,-1.2625,-1.3621,-1.3969,-1.5091,-1.6086,-1.631,-1.6297,-1.5831,-1.4523,-1.2651,-1.0035,-0.6294,-0.6272,-0.5506,-0.1848,-0.2068,-0.2612,-0.2612,-0.1851,-0.1306,-0.1306,-0.0545,-0.0327,-0.1198,-0.3045,-0.4997,-0.673,-0.8794,-0.9119,-0.6947,-0.6838,-0.5582,-0.2674,-0.3677,-0.4853,-0.6147,-0.7339,-0.7985,-0.8191,-0.9061,-0.6218,-0.012,-0.2396,-0.2157,0.0,0.0,0.0,0.0,0.0,0.0,0.0,0.0,0.0,0.0,0.0,0.0,0.0,0.0,0.0,0.0,0.0,0.0,0.0,0.0,0.0,0.0,0.0,0.0,0.0,0.0,0.0,0.0,0.0,0.0,0.0,0.0,0.0,0.0,0.0,0.0,0.0,0.0,0.0,0.0,0.0,0.0,0.0,0.0,0.0,0.0,0.0,0.0,0.0,0.0,0.0,0.0,0.0,0.0,0.0,0.0,0.0,0.0,0.0,0.0,0.0,0.0,0.0,0.0,0.0,0.0,0.0,-1.257,-1.2796,-1.3311,-1.4477,-1.4332,-1.4204,-1.575,-1.5849,-1.5869,-1.7028,-1.7035,-1.5212,-0.9742,-1.0816,-1.0745,-0.509,-0.6735,-0.8689,-0.8689,-0.6082,-0.4237,-0.4237,-0.1741,-0.1089,-0.3911,-0.4237,-0.673,-1.2483,-1.2915,-1.3023,-1.2915,-1.2915,-1.159,-0.8777,-0.5788,-0.5835,-0.9116,-0.6258,-0.491,-0.4912,-0.8067,-0.6218,0.0,0.0,0.0,0.0,0.0,0.0,0.0,0.0,0.0,0.0,0.0,0.0,0.0,0.0,0.0,0.0,0.0,0.0,0.0,0.0,0.0,0.0,0.0,0.0,0.0,0.0,0.0,0.0,0.0,0.0,0.0,0.0,0.0,0.0,0.0,0.0,0.0,0.0,0.0,0.0,0.0,0.0,0.0,0.0,0.0,0.0,0.0,0.0,0.0,0.0,0.0,0.0,0.0,0.0,0.0,0.0,0.0,0.0,0.0,0.0,0.0,0.0,0.0,0.0,0.0,0.0,0.0,0.0,0.0,0.0,-1.1557,-1.219,-1.2908,-1.3686,-1.4036,-1.4412,-1.5269,-1.5552,-1.5744,-1.6607,-1.6693,-1.5568,-1.2015,-1.222,-1.1647,-0.7922,-0.8147,-0.8039,-0.5973,-0.6627,-0.6627,-0.4563,-0.5324,-0.6303,-0.7277,-0.9119,-1.107,-1.2915,-1.4872,-1.5088,-1.3136,-1.3028,-1.077,-0.5798,-0.6786,-0.6953,-0.6169,-0.7294,-0.6817,-0.491,-0.5874,-0.5328,-0.3353,-0.3353,-0.2157,0.0,0.0,0.0,0.0,0.0,0.0,0.0,0.0,0.0,0.0,0.0,0.0,0.0,0.0,0.0,0.0,0.0,0.0,0.0,0.0,0.0,0.0,0.0,0.0,0.0,0.0,0.0,0.0,0.0,0.0,0.0,0.0,0.0,0.0,0.0,0.0,0.0,0.0,0.0,0.0,0.0,0.0,0.0,0.0,0.0,0.0,0.0,0.0,0.0,0.0,0.0,0.0,0.0,0.0,0.0,0.0,0.0,0.0,0.0,0.0,0.0,0.0,0.0,0.0,0.0,0.0,0.0,-1.126,-1.1926,-1.267,-1.3297,-1.3489,-1.3837,-1.4655,-1.4833,-1.4945,-1.5829,-1.5994,-1.5614,-1.4251,-1.4283,-1.3571,-1.0846,-1.129,-1.1286,-0.944,-0.8902,-0.8039,-0.619,-0.565,-0.6303,-0.8581,-1.0313,-1.2267,-1.4435,-1.629,-1.6505,-1.4764,-1.4651,-1.2479,-0.7705,-0.8364,-0.7422,-0.4634,-0.5383,-0.5908,-0.631,-0.6388,-0.5872,-0.4628,-0.4774,-0.3114,0.0,0.0,0.0,0.0,0.0,0.0,0.0,0.0,0.0,0.0,0.0,0.0,0.0,0.0,0.0,0.0,0.0,0.0,0.0,0.0,0.0,0.0,0.0,0.0,0.0,0.0,0.0,0.0,0.0,0.0,0.0,0.0,0.0,0.0,0.0,0.0,0.0,0.0,0.0,0.0,0.0,0.0,0.0,0.0,0.0,0.0,0.0,0.0,0.0,0.0,0.0,0.0,0.0,0.0,0.0,0.0,0.0,0.0,0.0,0.0,0.0,0.0,0.0,0.0,0.0,0.0,0.0,-1.1498,-1.1926,-1.2424,-1.3218,-1.2862,-1.2723,-1.4076,-1.3897,-1.3831,-1.4899,-1.5137,-1.5328,-1.5908,-1.6482,-1.6129,-1.3741,-1.5506,-1.7251,-1.7069,-1.2399,-0.9031,-0.8814,-0.3922,-0.2833,-0.8473,-0.9018,-1.1398,-1.6834,-1.7271,-1.7271,-1.7271,-1.7049,-1.5638,-1.2807,-1.0101,-0.7277,-0.4345,-0.1881,-0.3455,-0.912,-0.9172,-0.7571,-0.4677,-0.4746,-0.311,0.0,-0.024,-0.024,0.0,-0.024,-0.024,0.0,0.0,0.0,0.0,0.0,0.0,0.0,0.0,0.0,0.0,0.0,0.0,0.0,0.0,0.0,0.0,0.0,0.0,0.0,0.0,0.0,0.0,0.0,0.0,0.0,0.0,0.0,0.0,0.0,0.0,0.0,0.0,0.0,0.0,0.0,0.0,0.0,0.0,0.0,0.0,0.0,0.0,0.0,0.0,0.0,0.0,0.0,0.0,0.0,0.0,0.0,0.0,0.0,0.0,0.0,0.0,0.0,0.0,0.0,0.0,0.0,-1.1531,-1.1702,-1.2038,-1.2908,-1.3304,-1.3484,-1.3824,-1.4062,-1.4207,-1.4471,-1.4708,-1.4972,-1.5328,-1.5875,-1.631,-1.6279,-1.6649,-1.633,-1.454,-1.3041,-1.1272,-0.9289,-0.7631,-0.8143,-1.1628,-1.2051,-1.346,-1.7049,-1.7271,-1.7271,-1.7271,-1.5201,-1.2699,-0.9884,-0.9123,-0.7277,-0.4345,-0.5848,-0.8562,-1.2336,-1.0193,-0.8775,-0.794,-0.5863,-0.3079,-0.012,-0.2636,-0.2277,-0.024,-0.2636,-0.2277,0.0,0.0,0.0,0.0,0.0,0.0,0.0,0.0,0.0,0.0,0.0,0.0,0.0,0.0,0.0,0.0,0.0,0.0,0.0,0.0,0.0,0.0,0.0,0.0,0.0,0.0,0.0,0.0,0.0,0.0,0.0,0.0,0.0,0.0,0.0,0.0,0.0,0.0,0.0,0.0,0.0,0.0,0.0,0.0,0.0,0.0,0.0,0.0,0.0,0.0,0.0,0.0,0.0,0.0,0.0,0.0,0.0,0.0,0.0,0.0,0.0,-1.1807,-1.2018,-1.2196,-1.2546,-1.2862,-1.3126,-1.3251,-1.3409,-1.3685,-1.3878,-1.4062,-1.4379,-1.5058,-1.5348,-1.5803,-1.6805,-1.695,-1.6502,-1.5178,-1.3893,-1.2531,-1.1108,-0.8466,-0.8328,-1.2601,-1.1835,-1.2807,-1.6942,-1.7271,-1.7271,-1.7271,-1.5853,-1.3675,-1.0858,-1.075,-0.9339,-0.6407,-1.0509,-1.3519,-1.5173,-1.3841,-1.1664,-0.8908,-0.8928,-0.5635,-0.0238,0.0,-0.4309,-0.024,-0.3473,-0.2995,0.0,0.0,0.0,0.0,0.0,0.0,0.0,0.0,0.0,0.0,0.0,0.0,0.0,0.0,0.0,0.0,0.0,0.0,0.0,0.0,0.0,0.0,0.0,0.0,0.0,0.0,0.0,0.0,0.0,0.0,0.0,0.0,0.0,0.0,0.0,0.0,0.0,0.0,0.0,0.0,0.0,0.0,0.0,0.0,0.0,0.0,0.0,0.0,0.0,0.0,0.0,0.0,0.0,0.0,0.0,0.0,0.0,0.0,0.0,0.0,0.0,-1.2106,-1.2418,-1.2537,-1.2305,-1.2279,-1.2371,-1.2604,-1.273,-1.2862,-1.3281,-1.3418,-1.3746,-1.4801,-1.4866,-1.5091,-1.6066,-1.6581,-1.691,-1.7042,-1.468,-1.3073,-1.3073,-0.8278,-0.7076,-1.2483,-1.0858,-1.1615,-1.6942,-1.7271,-1.7271,-1.7271,-1.6834,-1.5524,-1.3136,-1.3028,-1.2047,-1.0101,-1.4872,-1.7049,-1.6619,-1.6949,-1.4187,-0.879,-1.1664,-0.8828,-0.1758,0.0,-0.6205,-0.0959,-0.3712,-0.2995,0.0,0.0,0.0,0.0,0.0,0.0,0.0,0.0,0.0,0.0,0.0,0.0,0.0,0.0,0.0,0.0,0.0,0.0,0.0,0.0,0.0,0.0,0.0,0.0,0.0,0.0,0.0,0.0,0.0,0.0,0.0,0.0,0.0,0.0,0.0,0.0,0.0,0.0,0.0,0.0,0.0,0.0,0.0,0.0,0.0,0.0,0.0,0.0,0.0,0.0,0.0,0.0,0.0,0.0,0.0,0.0,0.0,0.0,0.0,0.0,0.0,-1.2219,-1.2279,-1.2298,-1.2259,-1.2418,-1.2604,-1.265,-1.2968,-1.3274,-1.3366,-1.3569,-1.3785,-1.3962,-1.4458,-1.4833,-1.5005,-1.5888,-1.6811,-1.7665,-1.5034,-1.3066,-1.3286,-1.0186,-0.9364,-1.2719,-1.2591,-1.3789,-1.7049,-1.7271,-1.7271,-1.7271,-1.498,-1.346,-1.3028,-1.3028,-1.4004,-1.5961,-1.6834,-1.6068,-1.3675,-1.3712,-1.1957,-0.8783,-0.9275,-0.8873,-0.7823,0.0,0.0,-0.4189,-0.4668,-0.2995,0.0,0.0,0.0,0.0,0.0,0.0,0.0,0.0,0.0,0.0,0.0,0.0,0.0,0.0,0.0,0.0,0.0,0.0,0.0,0.0,0.0,0.0,0.0,0.0,0.0,0.0,0.0,0.0,0.0,0.0,0.0,0.0,0.0,0.0,0.0,0.0,0.0,0.0,0.0,0.0,0.0,0.0,0.0,0.0,0.0,0.0,0.0,0.0,0.0,0.0,0.0,0.0,0.0,0.0,0.0,0.0,0.0,0.0,0.0,0.0,0.0,-1.2245,-1.1433,-1.0812,-1.1976,-1.2451,-1.2703,-1.2783,-1.3159,-1.3425,-1.3575,-1.3707,-1.3844,-1.4095,-1.4214,-1.4497,-1.513,-1.5545,-1.6145,-1.718,-1.6148,-1.5363,-1.5472,-1.2839,-1.2143,-1.5099,-1.3896,-1.422,-1.7049,-1.7271,-1.7271,-1.7271,-1.6068,-1.5309,-1.5309,-1.5309,-1.5961,-1.7264,-1.7271,-1.6613,-1.5309,-1.5309,-1.3073,-0.8895,-1.2175,-1.0249,-0.4503,-0.9533,-0.8907,-0.4611,-0.4771,-0.3812,-0.2132,-0.0598,0.0,0.0,0.0,0.0,0.0,0.0,0.0,0.0,0.0,0.0,0.0,0.0,0.0,0.0,0.0,0.0,0.0,0.0,0.0,0.0,0.0,0.0,0.0,0.0,0.0,0.0,0.0,0.0,0.0,0.0,0.0,0.0,0.0,0.0,0.0,0.0,0.0,0.0,0.0,0.0,0.0,0.0,0.0,0.0,0.0,0.0,0.0,0.0,0.0,0.0,0.0,0.0,0.0,0.0,0.0,0.0,0.0,0.0,0.0,-1.0882,0.0,-0.9713,-1.1267,-1.2279,-1.2948,0.0,-1.3403,-1.3543,-1.3746,-1.3792,-1.3864,-1.4181,-1.4036,-1.4132,-1.5161,-1.5288,-1.5565,-1.6673,-1.7082,-1.7192,-1.7258,-1.5416,-1.4872,-1.7049,-1.5309,-1.498,-1.7157,-1.7271,-1.7271,-1.7271,-1.7271,-1.7271,-1.7271,-1.7271,-1.7271,-1.7271,-1.7271,-1.6942,-1.629,-1.6942,-1.4328,-0.8909,-1.495,-1.2377,-0.3523,-0.9908,-1.0207,-0.6281,-0.4512,-0.3913,-0.3981,-0.1073,0.0,0.0,0.0,0.0,0.0,0.0,0.0,0.0,0.0,0.0,0.0,0.0,0.0,0.0,0.0,0.0,0.0,0.0,0.0,0.0,0.0,0.0,0.0,0.0,0.0,0.0,0.0,0.0,0.0,0.0,0.0,0.0,0.0,0.0,0.0,0.0,0.0,0.0,0.0,0.0,0.0,0.0,0.0,0.0,0.0,0.0,0.0,0.0,0.0,0.0,0.0,0.0,0.0,0.0,0.0,0.0,0.0,0.0,0.0,0.0,-0.8143,-0.9864,-1.0015,-1.1874,-1.3707,-1.3726,-1.3746,0.0,-1.3792,-1.3792,-1.3798,-1.3818,-1.3805,-1.4001,-1.4728,-1.5031,-1.5493,-1.6396,-1.6772,-1.7062,-1.7231,-1.7157,-1.7049,-1.7264,-1.7157,-1.7049,-1.7264,-1.7271,-1.7271,-1.7271,-1.7271,-1.7271,-1.7271,-1.7271,-1.7271,-1.7271,-1.7271,-1.5961,-1.3352,-1.6068,-1.4328,-0.8906,-1.4673,-1.5575,0.0,-1.0083,-1.0494,-1.212,-0.3784,-0.19,-0.3981,-0.1073,0.0,0.0,0.0,0.0,0.0,0.0,0.0,0.0,0.0,0.0,0.0,0.0,0.0,0.0,0.0,0.0,0.0,0.0,0.0,0.0,0.0,0.0,0.0,0.0,0.0,0.0,0.0,0.0,0.0,0.0,0.0,0.0,0.0,0.0,0.0,0.0,0.0,0.0,0.0,0.0,0.0,0.0,0.0,0.0,0.0,0.0,0.0,0.0,0.0,0.0,0.0,0.0,0.0,0.0,0.0,0.0,0.0,0.0,0.0,-0.6469,-0.7021,-0.8072,-0.9578,-1.1756,-1.3582,-1.3759,-1.3792,-1.3792,-1.3792,-1.3792,-1.3792,-1.3792,-1.3792,-1.4041,-1.4899,-1.5117,-1.5486,-1.6363,-1.6745,-1.697,-1.7088,-1.7153,-1.7271,-1.7271,-1.7271,-1.7271,-1.7271,-1.7271,-1.7271,-1.7271,-1.7271,-1.7271,-1.7271,-1.7271,-1.7271,-1.7271,-1.7271,-1.6726,-1.5739,-1.6828,-1.5201,-1.1507,-1.3675,-1.2152,-0.7677,-0.6496,-0.7745,0.0,-0.2882,-0.2783,-0.6568,-0.1878,0.0,0.0,0.0,0.0,0.0,0.0,0.0,0.0,0.0,0.0,0.0,0.0,0.0,0.0,0.0,0.0,0.0,0.0,0.0,0.0,0.0,0.0,0.0,0.0,0.0,0.0,0.0,0.0,0.0,0.0,0.0,0.0,0.0,0.0,0.0,0.0,0.0,0.0,0.0,0.0,0.0,0.0,0.0,0.0,0.0,0.0,0.0,0.0,0.0,0.0,0.0,0.0,0.0,0.0,0.0,0.0,0.0,0.0,0.0,-0.4542,-0.5527,-0.7137,-0.8823,-1.1526,-1.3904,-1.4003,-1.4023,-1.397,-1.37,-1.3733,-1.3792,-1.3792,-1.3792,-1.4047,-1.4926,-1.5124,-1.5486,-1.6363,-1.6745,-1.6963,-1.7062,-1.7146,-1.7271,-1.7271,-1.7271,-1.7271,-1.7271,-1.7271,-1.7271,-1.7271,-1.7271,-1.7271,-1.7271,-1.7271,-1.7271,-1.7271,-1.7271,-1.7271,-1.7271,-1.7271,-1.5853,-1.3028,-1.4004,-1.1246,-0.5636,-0.5664,-0.6879,-0.8293,-0.2379,-0.2847,-0.6799,-0.1963,0.0,0.0,0.0,0.0,0.0,0.0,0.0,0.0,0.0,0.0,0.0,0.0,0.0,0.0,0.0,0.0,0.0,0.0,0.0,0.0,0.0,0.0,0.0,0.0,0.0,0.0,0.0,0.0,0.0,0.0,0.0,0.0,0.0,0.0,0.0,0.0,0.0,0.0,0.0,0.0,0.0,0.0,0.0,0.0,0.0,0.0,0.0,0.0,0.0,0.0,0.0,0.0,0.0,0.0,0.0,0.0,0.0,0.0,0.0,-0.0588,-0.3565,-0.7376,-0.7712,-1.1254,-1.4688,-1.4398,-1.4414,-1.4161,-1.3587,-1.3602,-1.3792,-1.3792,-1.3792,-1.3988,-1.4675,-1.5005,-1.548,-1.6356,-1.6739,-1.7035,-1.7225,-1.7264,-1.7271,-1.7271,-1.7264,-1.7264,-1.7264,-1.7264,0.0,-1.7271,-1.7264,-1.7264,-1.7271,-1.7271,-1.7271,-1.7271,-1.7271,-1.7271,-1.7271,-1.7271,-1.5853,-1.3136,-1.5961,-1.4112,-0.8696,-0.8721,-0.8705,0.0,-0.2482,-0.1698,-0.4017,-0.1136,0.0,0.0,0.0,0.0,0.0,0.0,0.0,0.0,0.0,0.0,0.0,0.0,0.0,0.0,0.0,0.0,0.0,0.0,0.0,0.0,0.0,0.0,0.0,0.0,0.0,0.0,0.0,0.0,0.0,0.0,0.0,0.0,0.0,0.0,0.0,0.0,0.0,0.0,0.0,0.0,0.0,0.0,0.0,0.0,0.0,0.0,0.0,0.0,0.0,0.0,0.0,0.0,0.0,0.0,0.0,0.0,0.0,0.0,0.0,-0.0602,-0.2265,-0.513,-0.7228,-0.9953,-1.2452,-1.3991,-1.4168,-1.3911,-1.3458,-1.3451,-1.3562,-1.3759,-1.3792,-1.3988,-1.4675,-1.484,-1.5124,-1.5789,-1.631,-1.6653,-1.6739,-1.7121,-1.7271,-1.7271,-1.5524,-1.4328,-1.4328,-1.6176,-1.7271,-1.7271,-1.5416,-1.5201,-1.7264,-1.7271,-1.7271,-1.7271,-1.7271,-1.7271,-1.7271,-1.7271,-1.6834,-1.5961,-1.2699,-1.0313,-0.8476,-0.437,-0.3714,0.0,-0.3735,-0.476,-0.7121,-0.4144,-0.3053,-0.2744,-0.069,0.0,0.0,0.0,0.0,0.0,0.0,0.0,0.0,0.0,0.0,0.0,0.0,0.0,0.0,0.0,0.0,0.0,0.0,0.0,0.0,0.0,0.0,0.0,0.0,0.0,0.0,0.0,0.0,0.0,0.0,0.0,0.0,0.0,0.0,0.0,0.0,0.0,0.0,0.0,0.0,0.0,0.0,0.0,0.0,0.0,0.0,0.0,0.0,0.0,0.0,0.0,0.0,0.0,0.0,0.0,0.0,-0.0594,-0.1721,-0.3946,-0.5795,-0.8636,-1.1345,-1.2383,-1.3316,-1.3911,-1.3396,-1.3307,-1.3471,-1.3739,-1.389,-1.4214,-1.4695,-1.4965,-1.5275,-1.5743,-1.6304,-1.6666,-1.6666,-1.7088,-1.7271,-1.7271,-1.5739,-1.422,-1.3136,-1.3568,-1.3896,-1.3896,-1.3352,-1.3783,-1.5524,-1.672,-1.7271,-1.7271,-1.7271,-1.7271,-1.7271,-1.7271,-1.7271,-1.7157,-1.2591,-0.9776,-0.8473,-0.3805,-0.2718,0.0,-0.3045,-0.4263,-0.672,-0.3752,-0.2555,-0.2356,-0.0678,0.0,0.0,0.0,0.0,0.0,0.0,0.0,0.0,0.0,0.0,0.0,0.0,0.0,0.0,0.0,0.0,0.0,0.0,0.0,0.0,0.0,0.0,0.0,0.0,0.0,0.0,0.0,0.0,0.0,0.0,0.0,0.0,0.0,0.0,0.0,0.0,0.0,0.0,0.0,0.0,0.0,0.0,0.0,0.0,0.0,0.0,0.0,0.0,0.0,0.0,0.0,0.0,0.0,0.0,0.0,0.0,-0.0493,-0.1524,-0.3323,-0.3751,-0.7273,-1.0531,-1.0088,-1.2088,-1.3821,-1.3156,-1.3278,-1.3471,-1.3739,-1.3947,-1.4157,-1.4721,-1.4946,-1.5399,-1.5994,-1.6528,-1.689,-1.689,-1.7174,-1.7271,-1.7271,-1.7049,-1.5853,-1.3244,-1.0313,-0.8473,-0.7931,-1.0638,-1.2483,-1.3028,-1.5524,-1.7049,-1.7271,-1.7271,-1.7271,-1.7271,-1.7271,-1.7157,-1.6828,-1.3896,-1.1074,-0.8147,-0.5214,-0.3911,0.0,-0.1306,-0.1959,-0.402,-0.1415,-0.0436,-0.0328,-0.0111,0.0,0.0,0.0,0.0,0.0,0.0,0.0,0.0,0.0,0.0,0.0,0.0,0.0,0.0,0.0,0.0,0.0,0.0,0.0,0.0,0.0,0.0,0.0,0.0,0.0,0.0,0.0,0.0,0.0,0.0,0.0,0.0,0.0,0.0,0.0,0.0,0.0,0.0,0.0,0.0,0.0,0.0,0.0,0.0,0.0,0.0,0.0,0.0,0.0,0.0,0.0,0.0,0.0,0.0,0.0,0.0,-0.0086,-0.0347,-0.1227,-0.3395,-0.4644,-0.6298,-0.9585,-1.0905,-1.1669,-1.3084,-1.334,-1.3471,-1.3739,-1.2447,-1.2077,-1.4357,-1.3361,-1.2974,-1.5386,-1.6218,-1.6581,-1.6581,-1.7049,-1.7271,-1.7271,-1.5309,-1.3675,-1.3028,-1.0313,-0.6738,-0.2069,-0.4564,-0.8246,-1.2915,-1.3568,-1.498,-1.7264,-1.7271,-1.7271,-1.7271,-1.7271,-1.6068,-1.3891,-1.0966,-0.8036,-0.5105,-0.2177,-0.0871,-0.1089,-0.2718,-0.3695,-0.4237,-0.3587,-0.3369,-0.3046,-0.0875,0.0,0.0,0.0,0.0,0.0,0.0,0.0,0.0,0.0,0.0,0.0,0.0,0.0,0.0,0.0,0.0,0.0,0.0,0.0,0.0,0.0,0.0,0.0,0.0,0.0,0.0,0.0,0.0,0.0,0.0,0.0,0.0,0.0,0.0,0.0,0.0,0.0,0.0,0.0,0.0,0.0,0.0,0.0,0.0,0.0,0.0,0.0,0.0,0.0,0.0,0.0,0.0,0.0,0.0,0.0,0.0,0.0,0.0,-0.0351,-0.1699,-0.2918,-0.4403,-0.6481,-0.8859,-1.0858,-1.1626,-1.2723,-1.3621,-1.3765,-1.3081,-1.3041,-1.4565,-1.3987,-1.3808,-1.5315,-1.6007,-1.6343,-1.6468,-1.6884,-1.7113,-1.7251,-1.4657,-1.2483,-1.1074,-0.8253,-0.5324,-0.2176,-0.2176,-0.4238,-0.8683,-1.0205,-1.2375,-1.5201,-1.5201,-1.5961,-1.7264,-1.5853,-1.4435,-1.292,-0.8578,-0.5756,-0.4128,-0.1198,-0.0762,-0.2067,-0.2176,-0.3045,-0.4128,-0.2718,-0.2176,-0.2067,-0.0545,0.0,0.0,0.0,0.0,0.0,0.0,0.0,0.0,0.0,0.0,0.0,0.0,0.0,0.0,0.0,0.0,0.0,0.0,0.0,0.0,0.0,0.0,0.0,0.0,0.0,0.0,0.0,0.0,0.0,0.0,0.0,0.0,0.0,0.0,0.0,0.0,0.0,0.0,0.0,0.0,0.0,0.0,0.0,0.0,0.0,0.0,0.0,0.0,0.0,0.0,0.0,0.0,0.0,0.0,0.0,0.0,-0.0595,-0.0345,0.0,0.0,-0.1642,-0.3224,-0.3169,-0.6492,-0.9524,-0.9413,-1.1425,-1.324,-1.3196,-1.3737,-1.4225,-1.4742,-1.4942,-1.5114,-1.5607,-1.5961,-1.6312,-1.6396,-1.6719,-1.7029,-1.7166,-1.5172,-1.2591,-0.9668,-0.6174,-0.4007,-0.3587,-0.1306,-0.1089,-0.3478,-0.641,-0.9339,-1.2267,-1.2267,-1.346,-1.5739,-1.346,-1.2047,-1.1394,-0.6513,-0.402,-0.3369,-0.098,0.0,-0.3369,-0.098,-0.1415,-0.3261,-0.0871,0.0,0.0,0.0,0.0,0.0,0.0,0.0,0.0,0.0,0.0,0.0,0.0,0.0,0.0,0.0,0.0,0.0,0.0,0.0,0.0,0.0,0.0,0.0,0.0,0.0,0.0,0.0,0.0,0.0,0.0,0.0,0.0,0.0,0.0,0.0,0.0,0.0,0.0,0.0,0.0,0.0,0.0,0.0,0.0,0.0,0.0,0.0,0.0,0.0,0.0,0.0,0.0,0.0,0.0,0.0,0.0,0.0,0.0,0.0,-0.2932,-0.1566,0.0,0.0,-0.0274,-0.1018,-0.3043,-0.4021,-0.506,-0.7014,-0.927,-1.0909,-1.0971,-1.1214,-1.223,-1.4711,-1.3756,-1.3492,-1.5716,-1.6258,-1.6356,-1.6259,-1.66,-1.695,-1.6983,-1.6794,-1.5524,-1.2699,-0.718,-0.2999,-0.0653,-0.0218,-0.0218,-0.0545,-0.3369,-0.6299,-0.9339,-0.9339,-0.9556,-0.9884,-0.9447,-0.7928,-0.5429,-0.4671,-0.2936,-0.0545,-0.0218,-0.0218,-0.0545,-0.0109,-0.0218,-0.0545,-0.0109,0.0,0.0,0.0,0.0,0.0,0.0,0.0,0.0,0.0,0.0,0.0,0.0,0.0,0.0,0.0,0.0,0.0,0.0,0.0,0.0,0.0,0.0,0.0,0.0,0.0,0.0,0.0,0.0,0.0,0.0,0.0,0.0,0.0,0.0,0.0,0.0,0.0,0.0,0.0,0.0,0.0,0.0,0.0,0.0,0.0,0.0,0.0,0.0,0.0,0.0,0.0,0.0,0.0,0.0,0.0,0.0,0.0,0.0,0.0,-0.3228,-0.1654,0.0,0.0,0.0,-0.0283,-0.1336,-0.2693,-0.3921,-0.4872,-0.6986,-0.8715,-0.8528,-0.9944,-1.1554,-1.279,-1.359,-1.4524,-1.5627,-1.5928,-1.602,-1.6172,-1.6297,-1.6508,-1.6666,-1.5323,-1.3337,-1.048,-0.7761,-0.574,-0.4605,-0.1624,0.0,0.0,-0.1198,-0.2502,-0.3807,-0.5433,-0.706,-0.8689,-0.706,-0.5539,-0.4237,-0.261,-0.1198,0.0,0.0,0.0,0.0,0.0,0.0,0.0,0.0,0.0,0.0,0.0,0.0,0.0,0.0,0.0,0.0,0.0,0.0,0.0,0.0,0.0,0.0,0.0,0.0,0.0,0.0,0.0,0.0,0.0,0.0,0.0,0.0,0.0,0.0,0.0,0.0,0.0,0.0,0.0,0.0,0.0,0.0,0.0,0.0,0.0,0.0,0.0,0.0,0.0,0.0,0.0,0.0,0.0,0.0,0.0,0.0,0.0,0.0,0.0,0.0,0.0,0.0,0.0,0.0,0.0,0.0,0.0,-0.4014,-0.2321,-0.0532,-0.0092,0.0,0.0,0.0,-0.147,-0.281,-0.2611,-0.4582,-0.6525,-0.6889,-0.9354,-1.1318,-1.1284,-1.3753,-1.5445,-1.4847,-1.5243,-1.5796,-1.5948,-1.6027,-1.5952,-1.5432,-1.4177,-1.16,-0.7356,-0.7047,-0.6759,-0.6072,-0.227,0.0,0.0,0.0,0.0,0.0,-0.2067,-0.4347,-0.6521,-0.4238,-0.3152,-0.3152,-0.098,0.0,0.0,0.0,0.0,0.0,0.0,0.0,0.0,0.0,0.0,0.0,0.0,0.0,0.0,0.0,0.0,0.0,0.0,0.0,0.0,0.0,0.0,0.0,0.0,0.0,0.0,0.0,0.0,0.0,0.0,0.0,0.0,0.0,0.0,0.0,0.0,0.0,0.0,0.0,0.0,0.0,0.0,0.0,0.0,0.0,0.0,0.0,0.0,0.0,0.0,0.0,0.0,0.0,0.0,0.0,0.0,0.0,0.0,0.0,0.0,0.0,0.0,0.0,0.0,0.0,0.0,0.0,0.0,-0.6737,-0.4322,-0.2011,-0.0363,0.0,0.0,0.0,-0.0098,-0.0194,-0.0187,-0.2038,-0.4389,-0.6568,-0.9343,-1.1237,-1.1259,-1.4002,-1.5246,-1.2719,-1.4531,-1.5954,-1.5587,-1.5901,-1.5165,-1.275,-1.4789,-1.2881,-0.4757,-0.4138,-0.3045,-0.0543,-0.0109,0.0,0.0,0.0,0.0,0.0,-0.0109,-0.0327,-0.0436,-0.0327,-0.0218,-0.0218,-0.0109,0.0,0.0,0.0,0.0,0.0,0.0,0.0,0.0,0.0,0.0,0.0,0.0,0.0,0.0,0.0,0.0,0.0,0.0,0.0,0.0,0.0,0.0,0.0,0.0,0.0,0.0,0.0,0.0,0.0,0.0,0.0,0.0,0.0,0.0,0.0,0.0,0.0,0.0,0.0,0.0,0.0,0.0,0.0,0.0,0.0,0.0,0.0,0.0,0.0,0.0,0.0,0.0,0.0,0.0,0.0,0.0,0.0,0.0,0.0,0.0,0.0,0.0,0.0,0.0,0.0,0.0,0.0,0.0,-0.8827,-0.5553,-0.2446,-0.229,-0.109,0.0,0.0,0.0,0.0,0.0,-0.0643,-0.1469,-0.2319,-0.467,-0.6498,-0.6543,-0.892,-1.0447,-0.9457,-1.0148,-1.0714,-1.0545,-1.2175,-1.2226,-0.9657,-1.18,-1.0754,-0.439,-0.3935,-0.349,-0.2524,-0.0959,0.0,0.0,0.0,0.0,0.0,0.0,0.0,0.0,0.0,0.0,0.0,0.0,0.0,0.0,0.0,0.0,0.0,0.0,0.0,0.0,0.0,0.0,0.0,0.0,0.0,0.0,0.0,0.0,0.0,0.0,0.0,0.0,0.0,0.0,0.0,0.0,0.0,0.0,0.0,0.0,0.0,0.0,0.0,0.0,0.0,0.0,0.0,0.0,0.0,0.0,0.0,0.0,0.0,0.0,0.0,0.0,0.0,0.0,0.0,0.0,0.0,0.0,0.0,0.0,0.0,0.0,0.0,0.0,0.0,0.0,0.0,0.0,0.0,0.0,0.0,0.0,0.0,0.0,0.0,0.0,-0.9491,-0.6885,-0.435,-0.3383,-0.2101,-0.0898,-0.018,0.0,0.0,0.0,0.0,-0.0273,-0.1071,-0.2648,-0.3833,-0.3764,-0.6022,-0.7466,-0.6634,-0.7222,-0.7806,-0.7806,-1.0054,-1.0253,-0.6835,-0.8007,-0.7249,-0.2865,-0.26,-0.2942,-0.3819,-0.1369,-0.0428,-0.1296,-0.0435,0.0,0.0,0.0,0.0,0.0,0.0,0.0,0.0,0.0,0.0,0.0,0.0,0.0,0.0,0.0,0.0,0.0,0.0,0.0,0.0,0.0,0.0,0.0,0.0,0.0,0.0,0.0,0.0,0.0,0.0,0.0,0.0,0.0,0.0,0.0,0.0,0.0,0.0,0.0,0.0,0.0,0.0,0.0,0.0,0.0,0.0,0.0,0.0,0.0,0.0,0.0,0.0,0.0,0.0,0.0871,0.1859,0.2874,0.3016,0.3062,0.3128,0.3195,0.3248,0.3159,0.3191,0.3209,0.3209,0.2234,0.1618,0.1618,0.0505,0.0,0.0,0.0,0.0,0.0,0.0,0.0,-0.8997,-0.8495,-0.7748,-0.37,-0.298,-0.2636,-0.0532,-0.009,-0.009,0.0,0.0,-0.0714,-0.2969,-0.3629,-0.3704,-0.3408,-0.5725,-0.6693,-0.4093,-0.5953,-0.7507,-0.7514,-0.986,-0.9378,-0.4302,-0.3814,-0.286,-0.0302,0.0,-0.1117,-0.3713,-0.1367,-0.1168,-0.371,-0.1295,0.0,0.0,0.0,0.0,0.0,0.0,0.0,0.0,0.0,0.0,0.0,0.0,0.0,0.0,0.0,0.0,0.0,0.0,0.0,0.0,0.0,0.0,0.0,0.0,0.0,0.0,0.0,0.0,0.0,0.0,0.0,0.0,0.0,0.0,0.0,0.0,0.0,0.0,0.0,0.0,0.0,0.0,0.0,0.0,0.0,0.0,0.0,0.0,0.0,0.0,0.0,0.0,0.0,0.0109,0.2501,0.5324,0.8262,0.8944,0.9113,0.9119,0.9384,0.9553,0.9556,0.9556,0.9556,0.9556,0.6672,0.5016,0.5016,0.1865,0.0251,0.0251,0.0251,0.0126,0.0126,0.0,0.0,-1.0831,-0.9573,-0.8093,-0.7219,-0.615,-0.4659,-0.2327,-0.2075,-0.1803,-0.0344,0.0,-0.0176,-0.0873,-0.1064,-0.108,-0.0996,-0.1658,-0.1878,-0.1149,-0.1728,-0.2122,-0.2152,-0.4402,-0.4695,-0.1372,-0.2742,-0.3628,-0.2859,-0.1087,-0.1096,-0.3746,-0.1429,-0.0309,-0.1043,-0.0425,0.0,0.0,0.0,0.0,0.0,0.0,0.0,0.0,0.0,0.0,0.0,0.0,0.0,0.0,0.0,0.0,0.0,0.0,0.0,0.0,0.0,0.0,0.0,0.0,0.0,0.0,0.0,0.0,0.0,0.0,0.0,0.0,0.0,0.0,0.0,0.0,0.0,0.0,0.0,0.0,0.0,0.0,0.0,0.0,0.0,0.0,0.0,0.0,0.0,0.0,0.0,0.0,0.0762,0.2827,0.1959,0.2296,0.5193,0.7463,0.8927,0.914,0.9231,0.9326,0.955,0.9556,0.9556,0.9556,0.8638,0.8299,0.8299,0.732,0.6884,0.6884,0.4602,0.3503,0.3504,0.1133,0.0,-1.2216,-1.1018,-0.9302,-0.8647,-0.7671,-0.6385,-0.4472,-0.34,-0.2602,-0.1493,-0.0594,0.0,0.0,0.0,0.0,0.0,0.0,0.0,0.0,0.0,0.0,0.0,-0.1357,-0.1647,-0.0194,-0.1367,-0.2252,-0.2252,-0.0883,-0.1182,-0.3776,-0.1405,-0.0507,-0.1637,-0.0521,0.0,0.0,0.0,0.0,0.0,0.0,0.0,0.0,0.0,0.0,0.0,0.0,0.0,0.0,0.0,0.0,0.0,0.0,0.0,0.0,0.0,0.0,0.0,0.0,0.0,0.0,0.0,0.0,0.0,0.0,0.0,0.0,0.0,0.0,0.0,0.0,0.0,0.0,0.0,0.0,0.0,0.0,0.0,0.0,0.0,0.0,0.0,0.0,0.0,0.0,0.0,0.098,0.2393,0.402,0.4997,0.6107,0.7704,1.0564,1.2455,1.2775,1.2886,1.3025,1.335,1.3364,1.3402,1.3481,1.2289,1.1576,1.1576,1.0233,0.9555,0.9555,0.7691,0.6867,0.6747,0.3463,0.2722,-1.3409,-1.2891,-1.1237,-0.9223,-0.8773,-0.8318,0.0,-0.4594,-0.3145,-0.3036,-0.1562,-0.0251,0.0,0.0,0.0,0.0,0.0,0.0,0.0,0.0,0.0,0.0,0.0,0.0,0.0,0.0,-0.0098,-0.0392,-0.0196,-0.1177,-0.3718,-0.1394,-0.1206,-0.381,-0.133,-0.0103,-0.0413,-0.0105,0.0,0.0,0.0,0.0,0.0,0.0,0.0,0.0,0.0,0.0,0.0,0.0,0.0,0.0,0.0,0.0,0.0,0.0,0.0,0.0,0.0,0.0,0.0,0.0,0.0,0.0,0.0,0.0,0.0,0.0,0.0,0.0,0.0,0.0,0.0,0.0,0.0,0.0,0.0,0.0,0.0,0.0,0.0,0.0,0.0,0.0,0.0218,0.0871,0.3153,0.4888,0.5214,0.9548,1.2807,1.346,1.5524,1.7038,1.7728,1.8018,1.8328,1.8657,1.8677,1.8802,1.9079,1.6336,1.4904,1.4904,1.2051,1.0628,1.0628,1.0271,1.0033,1.0036,0.6791,0.7024,0.0,0.0,0.0,0.0,0.0,0.0,0.0,-0.7268,-0.6218,-0.3217,-0.2294,-0.1644,-0.024,0.0,0.0,0.0,0.0,0.0,0.0,0.0,0.0,0.0,0.0,0.0,0.0,0.0,-0.0868,-0.2933,-0.1177,-0.1177,-0.3718,-0.1377,-0.1183,-0.3836,-0.1405,-0.1014,-0.3136,-0.1032,0.0,0.0,0.0,0.0,0.0,0.0,0.0,0.0,0.0,0.0,0.0,0.0,0.0,0.0,0.0,0.0,0.0,0.0,0.0,0.0,0.0,0.0,0.0,0.0,0.0,0.0,0.0,0.0,0.0,0.0,0.0,0.0,0.0,0.0,0.0,0.0,0.0,0.0,0.0,0.0,0.0,0.0,0.0,0.0,0.0,0.0,0.1633,0.6303,0.7497,0.8686,1.107,1.0313,1.1398,1.5961,1.4872,1.4781,1.7235,1.7714,1.8103,1.8644,1.8677,1.8802,1.9079,1.8495,1.8134,1.8134,1.7537,1.7182,1.7182,1.4672,1.3476,1.3358,1.018,1.0296,0.0,0.0,0.0,0.0,0.0,0.0,0.0,0.0,0.0,0.0,0.0,-0.3376,-0.1597,0.0,-0.0972,-0.0166,0.0,0.0,0.0,0.0,0.0,0.0,0.0,0.0,0.0,0.0,-0.0569,-0.1833,-0.0774,-0.0583,-0.1861,-0.0687,-0.1177,-0.3814,-0.1385,-0.1293,-0.3869,-0.1316,0.0,0.0,-0.1358,-0.1265,0.0,-0.138,-0.1281,0.0,0.0,0.0,0.0,0.0,0.0,0.0,0.0,0.0,0.0,0.0,0.0,0.0,0.0,0.0,0.0,0.0,0.0,0.0,0.0,0.0,0.0,0.0,0.0,0.0,0.0,0.0,0.0,0.0,0.0,0.0,0.0,0.0,0.0,0.0,0.0,0.0436,0.185,0.324,0.5045,0.8045,0.9579,1.1002,1.2481,1.2586,1.3557,1.6119,1.5155,1.4848,1.6297,1.6765,1.6642,1.5652,1.4563,1.3994,1.4332,1.5622,1.6437,1.6437,1.7981,1.8888,1.8881,1.747,1.6697,1.6691,1.3383,1.2867,0.0,0.0,0.0,0.0,0.0,0.0,0.0,0.0,0.0,0.0,0.0,0.0,0.0,0.0,0.0,-0.0724,-0.0249,0.0,0.0,0.0,0.0,0.0,0.0,0.0,0.0,0.0,0.0,0.0,0.0,0.0,0.0,0.0,-0.1166,-0.3794,-0.1365,-0.127,-0.3815,-0.1294,0.0,0.0,0.0,0.0,-0.0104,-0.2173,-0.1982,0.0,0.0,0.0,0.0,0.0,0.0,0.0,0.0,0.0,0.0,0.0,0.0,0.0,0.0,0.0,0.0,0.0,0.0,0.0,0.0,0.0,0.0,0.0,0.0,0.0,0.0,0.0,0.0,0.0,0.0,0.0,0.0,0.0,0.0,0.0,0.0436,0.1524,0.3911,0.6833,0.9138,0.9493,1.159,1.3049,1.2859,1.498,1.631,1.5842,1.5692,1.5692,1.5692,1.5561,1.4675,1.2766,1.0998,1.022,1.0838,1.3076,1.4309,1.4309,1.6315,1.7559,1.7779,1.7399,1.7262,1.7127,1.4649,1.3707,0.0,0.0,0.0,0.0,0.0,0.0,0.0,0.0,0.0,0.0,0.0,0.0,0.0,0.0,0.0,0.0,-0.0974,0.0,0.0,0.0,0.0,0.0,0.0,0.0,0.0,0.0,0.0,0.0,0.0,0.0,0.0,0.0,0.0,0.0,0.0,-0.1253,-0.3814,-0.1277,0.0,0.0,-0.0303,-0.0306,0.0,-0.0311,-0.0311,0.0,0.0,0.0,0.0,0.0,0.0,0.0,0.0,0.0,0.0,0.0,0.0,0.0,0.0,0.0,0.0,0.0,0.0,0.0,0.0,0.0,0.0,0.0,0.0,0.0,0.0,0.0,0.0,0.0,0.0,0.0,0.0,0.0,0.0,0.0,0.2067,0.3911,0.4237,0.8448,1.2468,1.4462,1.5471,1.5793,1.5294,1.5965,1.6462,1.6396,0.0,0.0,1.6389,1.433,1.289,1.2642,1.2789,1.3821,1.5628,1.606,1.6267,1.6267,1.4099,1.3464,1.4388,1.1787,1.0654,1.062,1.0237,1.1423,0.0,0.0,0.0,0.0,0.0,0.0,0.0,0.0,0.0,0.0,0.0,0.0,0.0,0.0,0.0,0.0,-0.1936,-0.1434,-0.1434,-0.0653,0.0,0.0,0.0,0.0,0.0,0.1227,0.1424,0.0091,0.1274,0.1463,0.0093,0.0,-0.1208,-0.3836,-0.1406,-0.1223,-0.3884,-0.1343,0.0,0.0,-0.1578,-0.1494,-0.01,-0.1605,-0.1413,0.0,0.0,0.0,0.0,0.0,0.0,0.0,0.0,0.0,0.0,0.0,0.0,0.0,0.0,0.0,0.0,0.0,0.0,0.0,0.0,0.0,0.0,0.0,0.0,0.0,0.0,0.0,0.0,0.0,0.1164,0.2219,0.2219,0.2219,0.2746,0.4221,0.4221,0.0,0.8319,1.2071,1.4845,1.5724,1.5941,1.5901,1.5561,1.5836,1.5855,1.5526,1.5486,1.5486,1.5486,1.4626,0.0,0.0,0.0,1.1927,1.0989,1.1103,0.0,0.0,0.0,0.0,0.0,0.0,0.0,0.0,0.5914,0.7451,0.0,0.0,0.0,0.0,0.0,0.0,0.0,0.0,0.0,0.0,0.0,0.0,0.0,0.0,0.0,0.0,-0.3667,-0.2848,-0.2444,-0.1397,-0.0561,-0.008,0.0,0.0,0.0,0.2028,0.2667,0.0962,0.299,0.3552,0.1895,0.1905,0.1094,-0.0824,0.0275,0.0092,-0.1849,-0.0657,0.0,0.0,-0.1916,-0.1833,-0.0097,-0.1929,-0.1755,0.0,0.0,0.0,0.0,0.0,0.0,0.0,0.0,0.0,0.0,0.0,0.0,0.0,0.0,0.0,0.0,0.0,0.0,0.0,0.0,0.0,0.0,0.0,0.0,0.0,0.0,0.0,0.0,0.0,0.1449,0.2792,0.2792,0.2792,0.3617,0.619,0.5223,0.5593,1.1171,1.367,1.5101,1.5646,1.5664,0.0,1.5318,1.543,1.5371,1.5051,1.5011,1.5011,1.5011,1.4426,1.3261,1.1395,1.1448,1.0565,0.8303,0.8831,0.9362,0.9829,1.0739,1.0419,0.0,0.0,0.0,0.0,0.0,0.0,0.0,0.0,0.0,0.0,0.0,0.0,0.0,0.0,0.0,0.0,0.0,0.0,0.0,0.0,0.0,0.0,0.0,0.0,-0.2338,-0.2335,-0.1817,-0.0222,0.0,0.0,0.0,0.1856,0.3103,0.3024,0.5084,0.6329,0.6417,0.6622,0.6756,0.6625,0.4577,0.3356,0.3236,0.1112,0.0,0.0,-0.0093,-0.0093,0.0,-0.0093,-0.0094,0.0,0.0,0.0,0.0,0.0,0.0,0.0,0.0,0.0,0.0,0.0,0.0,0.0,0.0,0.0,0.0,0.0,0.0,0.0,0.0,0.0,0.0,0.0,0.0,0.0,0.0,0.0,0.0,0.0,0.0104,0.0104,0.0104,0.0104,0.0932,0.3514,0.3917,0.5582,1.0762,1.1735,1.246,1.4524,1.5282,0.0,1.4873,1.5194,1.5521,1.5508,1.5502,1.5502,1.5502,1.3011,1.134,1.1274,1.1284,1.1281,1.1099,1.2723,1.3821,1.4207,0.9234,0.7134,0.8165,0.0,0.0,0.0,0.0,0.0,0.0,0.0,0.0,0.0,0.0,0.0,0.0,0.0,0.0,0.0,0.0,0.0,0.0,0.0,0.0,0.0,0.0,0.0,0.0,-0.3712,-0.2117,-0.1747,-0.1693,-0.1209,-0.0074,0.0926,0.1433,0.1038,0.4394,0.5763,0.4366,0.5636,0.6472,0.6701,0.5849,0.478,0.3554,0.2703,0.1542,0.0,0.0,0.0,0.0,0.0,0.0,0.0,0.0,0.0,0.0,0.0,0.0,0.0,0.0,0.0,0.0,0.0,0.0,0.0,0.0,0.0,0.0,0.0,0.0,0.0,0.0,0.0,0.0,0.0,0.0,0.0,0.0,0.0,0.0,0.0,0.1287,0.2594,0.2594,0.2594,0.3391,0.5972,0.5072,0.4969,0.8522,1.0373,1.1678,1.2327,1.3942,1.4992,1.4794,1.4939,1.5058,1.5058,1.5058,1.5058,1.5058,1.4143,1.3547,1.3365,1.331,1.3188,1.2917,1.3743,1.4227,1.4414,1.1128,0.9233,0.8764,0.0,0.0,0.0,0.0,0.0,0.0,0.0,0.0,0.0,0.0,0.0,0.0,0.0,0.0,0.0,0.0,0.0,0.0,0.0,0.0,0.0,0.0,0.0,0.0,0.0,0.0,-0.2613,-0.2437,0.0,-0.0897,-0.0361,0.0,0.0225,0.3544,0.5192,0.4368,0.6323,0.7551,0.7807,0.6903,0.5865,0.4589,0.302,0.1484,0.0,0.0,0.0,0.0,0.0,0.0,0.0,0.0,0.0,0.0,0.0,0.0,0.0,0.0,0.0,0.0,0.0,0.0,0.0,0.0,0.0,0.0,0.0,0.0,0.0,0.0,0.0,0.0,0.0,0.0,0.0,0.0,0.0,0.0,0.0,0.1238,0.2495,0.2495,0.247,0.3021,0.4681,0.363,0.332,0.5964,0.8074,0.9795,1.1048,1.2999,1.4418,1.4735,1.4774,1.4774,1.4774,1.4774,1.4774,1.4774,1.4675,1.4537,1.4428,1.4227,1.4082,1.3798,1.397,1.3924,1.3791,1.223,1.0221,0.0,0.0,0.0,0.0,0.0,0.0,0.0,0.0,0.0,0.0,0.0,0.0,0.0,0.0,0.0,0.0,0.0,0.0,0.0,0.0,0.0,0.0,0.0,0.0,0.0,0.0,0.0,-0.2867,-0.2463,0.0,0.0,0.0,0.0,0.0404,0.2466,0.4395,0.6247,0.8386,0.968,0.9758,0.7686,0.6489,0.6259,0.2204,0.0083,0.0,0.0,0.0,0.0,0.0,0.0,0.0,0.0,0.0,0.0,0.0,0.0,0.0,0.0,0.0,0.0,0.0,0.0,0.0,0.0,0.0,0.0,0.0,0.0,0.0,0.0,0.0,0.0,0.0,0.0,0.0,0.0,0.0,0.0,0.0,0.0,0.0,0.0,0.0,0.0,0.0,0.0,0.081,0.3287,0.0,0.7097,1.0502,1.2293,1.3641,1.4576,1.4708,1.4728,1.4546,1.4546,1.4546,1.4357,1.4183,1.4015,1.4191,1.3743,1.3575,1.3746,1.3374,1.2951,1.2468,1.2236,0.0,0.0,0.0,0.0,0.0,0.0,0.0,0.0,0.0,0.0,0.0,0.0,0.0,0.0,0.0,0.0,0.0,0.0,0.0,0.0,0.0,0.0,0.0,0.0,0.0,0.0,-0.8301,-0.5786,-0.4957,-0.4427,-0.3609,0.0,0.0,0.0,0.0,0.0,0.0,0.2165,0.4286,0.6,0.7235,0.6784,0.5743,0.4287,0.3152,0.1734,0.0,0.0,0.0,0.0,0.0,0.0,0.0,0.0,0.0,0.0,0.0,0.0,0.0,0.0,0.0,0.0,0.0,0.0,0.0,0.0,0.0,0.0,0.0,0.0,0.0,0.0,0.0,0.0,0.0,0.0,0.0,0.0,0.0,0.0,0.0,0.0,0.0,0.0,0.0,0.0,0.0,0.0,0.0235,0.0858,0.0,0.0,0.0,0.9573,1.1751,1.3244,1.3845,1.3403,1.1729,1.1554,1.0843,0.9163,0.8913,0.9488,1.0932,0.9629,1.0095,1.3081,1.1129,1.0125,1.0602,0.0,0.0,0.0,0.0,0.0,0.0,0.0,0.0,0.0,0.0,0.0,0.0,0.0,0.0,0.0,0.0,0.0,0.0,0.0,0.0,0.0,0.0,0.0,0.0,0.0,0.0,0.0,-1.0087,-0.788,-0.7275,-0.6772,-0.5762,0.0,0.0,0.0,0.0,0.0,0.0,0.0,0.0,0.0,0.3934,0.393,0.374,0.3348,0.239,0.131,0.0,0.0,0.0,0.0,0.0,0.0,0.0,0.0,0.0,-0.008,-0.0789,-0.0697,-0.0076,0.0,0.0,0.0,0.0,-0.0426,-0.0849,-0.0221,0.0,0.0,0.0,0.0,0.0,0.0,0.0,0.0,0.0,0.0,0.0,0.0,0.0,0.0,0.0,0.0,0.0,0.0,0.0,0.0,0.0,0.0,0.0,0.0,0.0,0.0,0.0,0.0,1.0178,1.1463,1.2721,1.266,1.0465,1.0208,0.9364,0.7174,0.7017,0.7796,0.9771,0.8844,0.9554,1.2312,1.0257,0.8961,0.0,0.0,0.0,0.0,0.0,0.0,0.0,0.0,0.0,0.0,0.0,0.0,0.0,0.0,0.0,0.0,0.0,0.0,0.0,0.0,0.0,0.0,0.0,0.0,0.0,0.0,0.0,0.0,0.0,-1.043,-0.9446,0.0,0.0,0.0,0.0,0.0,0.0,0.0,0.0,0.0,0.0,0.0,0.0,0.0,0.0893,0.2384,0.0663,-0.0138,0.0,0.0,0.0,0.0,0.0,0.0,0.0,-0.0167,0.0,-0.0146,-0.1841,0.0,0.0,0.0,0.0,0.0,0.0,0.0,0.0,0.0,0.0,0.0,0.0,0.0,0.0,0.0,0.0,0.0,0.0,0.0,0.0,0.0,0.0,0.0,0.0,0.0,0.0,0.0,0.0,0.0,0.0,0.0,0.0,0.0,0.0,0.0,0.0,0.0,0.0,0.9731,1.148,1.1793,0.9672,0.9263,0.8292,0.6272,0.6093,0.689,0.8903,0.8723,0.9277,1.086,0.936,0.0,0.0,0.0,0.0,0.0,0.0,0.0,0.0,0.0,0.0,0.0,0.0,0.0,0.0,0.0,0.0,0.0,0.0,0.0,0.0,0.0,0.0,0.0,0.0,0.0,0.0,0.0,0.0,0.0,0.0,0.0,0.0,0.0,0.0,0.0,0.0,0.0,0.0,0.0,0.0,0.0,0.0,0.0,0.0,0.0,0.0,0.0,0.0,0.0,0.0,0.0,0.0,0.0,0.0,0.0,-0.0073,-0.1031,-0.0891,-0.0142,-0.1823,0.0,0.0,0.0,0.0,0.0,0.0,0.0,0.0,0.0,0.0,0.0,0.0,0.0,0.0,0.0,0.0,0.0,0.0,0.0,0.0,0.0,0.0,0.0,0.0,0.0,0.0,0.0,0.0,0.0,0.0,0.0,0.0,0.0,0.0,0.0,0.0,0.0,0.0,0.906,0.9979,0.9596,0.7405,0.5616,0.3666,0.139,0.1205,0.2065,0.4203,0.2655,0.3324,0.0,0.0,0.0,0.0,0.0,0.0,0.0,0.0,0.0,0.0,0.0,0.0,0.0,0.0,0.0,0.0,0.0,0.0,0.0,0.0,0.0,0.0,0.0,0.0,0.0,0.0,0.0,0.0,0.0,0.0,0.0,0.0,0.0,0.0,0.0,0.0,0.0,0.0,0.0,0.0,0.0,0.0,0.0,0.0,0.0,0.0,0.0,0.0,0.0,0.0,0.0,0.0,0.0,0.0,0.0,0.0,0.0,0.0,0.0,-0.2239,0.0,0.0,0.0,0.0,0.0,0.0,0.0,0.0,0.0,0.0,0.0,0.0,0.0,0.0,0.0,0.0,0.0,0.0,0.0,0.0,0.0,0.0,0.0,0.0,0.0,0.0,0.0,0.0,0.0,0.0,0.0,0.0,0.0,0.0,0.0,0.0,0.0,0.0,0.0,0.0,0.768,0.9771,0.9909,0.6823,0.5498,0.3477,0.0241,0.0,0.0916,0.301,0.2169,0.0,0.0,0.0,0.0,0.0,0.0,0.0,0.0,0.0,0.0,0.0,0.0,0.0,0.0,0.0,0.0,0.0,0.0,0.0,0.0,0.0,0.0,0.0,0.0,0.0,0.0,0.0,0.0,0.0,0.0,0.0,0.0,0.0,0.0,0.0,0.0,0.0,0.0,0.0,0.0,0.0,0.0,0.0,0.0,0.0,0.0,0.0,0.0,0.0,0.0,0.0,0.0,0.0,0.0,0.0,0.0,0.0,0.0,0.0,-0.3599,0.0,0.0,0.0,0.0,0.0,0.0,0.0,0.0,0.0,0.0,0.0,0.0,0.0,0.0,0.0,0.0,0.0,0.0,0.0,0.0,0.0,0.0,0.0,0.0,0.0,0.0,0.0,0.0,0.0,0.0,0.0,0.0,0.0,0.0,0.0,0.0,0.0,0.0,0.0,0.0,0.0,0.6509,0.9521,1.0346,0.6809,0.591,0.4034,0.0316,0.0,0.0665,0.2323,0.246,0.0,0.0,0.0,0.0,0.0,0.0,0.0,0.0,0.0,0.0,0.0,0.0,0.0,0.0,0.0,0.0,0.0,0.0,0.0,0.0,0.0,0.0,0.0,0.0,0.0,0.0,0.0,0.0,0.0,0.0,0.0,0.0,0.0,0.0,0.0,0.0,0.0,0.0,0.0,0.0,0.0,0.0,0.0,0.0,0.0,0.0,0.0,0.0,0.0,0.0,0.0,0.0,0.0,0.0,0.0,0.0,0.0,0.0,0.0,0.0,0.0,0.0,0.0,0.0,0.0,0.0,0.0,0.0,0.0,0.0,0.0,0.0,0.0,0.0,0.0,0.0,0.0,0.0,0.0,0.0,0.0,0.0,0.0,0.0,0.0,0.0,0.0,0.0,0.0,0.0,0.0,0.0,0.0,0.0,0.0,0.0,0.0,0.0,0.0,0.0,0.0,0.6425,0.8379,0.8948,0.6823,0.4869,0.2735,0.0238,0.0,0.0074,0.0274,0.0,0.0,0.0,0.0,0.0,0.0,0.0,0.0,0.0,0.0,0.0,0.0,0.0,0.0,0.0,0.0,0.0,0.0,0.0,0.0,0.0,0.0,0.0,0.0,0.0,0.0,0.0,0.0,0.0,0.0,0.0,0.0,0.0,0.0,0.0,0.0,0.0,0.0,0.0,0.0,0.0,0.0,0.0,0.0,0.0,0.0,0.0,0.0,0.0,0.0,0.0,0.0,0.0,0.0,0.0,0.0,0.0,0.0,0.0,0.0,0.0,0.0,0.0,0.0,0.0,0.0,0.0,0.0,0.0,0.0,0.0,0.0,0.0,0.0,0.0,0.0,0.0,0.0,0.0,0.0,0.0,0.0,0.0,0.0,0.0,0.0,0.0,0.0,0.0,0.0,0.0,0.0,0.0,0.0,0.0,0.0,0.0,0.0,0.0,0.0,0.0,0.0,0.6457,0.8131,0.8598,0.6731,0.4534,0.2342,0.0155,0.0,0.0,0.0,0.0,0.0,0.0,0.0,0.0,0.0,0.0,0.0,0.0,0.0,0.0,0.0,0.0,0.0,0.0,0.0,0.0,0.0,0.0,0.0,0.0,0.0,0.0,0.0,0.0,0.0,0.0,0.0,0.0,0.0,0.0,0.0,0.0,0.0,0.0,0.0,0.0,0.0,0.0,0.0,0.0,0.0,0.0,0.0,0.0,0.0,0.0,0.0,0.0,0.0,0.0,0.0,0.0,0.0,0.0,0.0,0.0,0.0,0.0,0.0,0.0,0.0,0.0,0.0,0.0,0.0,0.0,0.0,0.0,0.0,0.0,0.0,0.0,0.0,0.0,0.0,0.0,0.0,0.0,0.0,0.0,0.0,0.0,0.0,0.0,0.0,0.0,0.0,0.0,0.0,0.0,0.0,0.0,0.0,0.0,0.0,0.0,0.0,0.0,0.0,0.0,0.0,0.6524,0.8112,0.8494,0.6647,0.4513,0.232,0.0153,0.0,0.0,0.0,0.0,0.0,0.0,0.0,0.0,0.0,0.0,0.0,0.0,0.0,0.0,0.0,0.0,0.0,0.0,0.0,0.0,0.0,0.0,0.0,0.0,0.0,0.0,0.0,0.0,0.0,0.0,0.0,0.0,0.0,0.0,0.0,0.0,0.0,0.0,0.0,0.0,0.0,0.0,0.0,0.0,0.0,0.0,0.0,0.0,0.0,0.0,0.0,0.0,0.0,0.0,0.0,0.0,0.0,0.0,0.0,0.0,0.0,0.0,0.0,0.0,0.0,0.0,0.0,0.0,0.0,0.0,0.0,0.0,0.0,0.0,0.0,0.0,0.0,0.0,0.0,0.0,0.0,0.0,0.0,0.0,0.0,0.0,0.0,0.0,0.0,0.0,0.0,0.0,0.0,0.0,0.0,0.0,0.0,0.0,0.0,0.0,0.0,0.0,0.0,0.0,0.0,0.6401,0.8236,0.873,0.6661,0.464,0.2561,0.023,0.0,0.0,0.0,0.0,0.0,0.0,0.0,0.0,0.0,0.0,0.0,0.0,0.0,0.0,0.0,0.0,0.0,0.0,0.0,0.0,0.0,0.0,0.0,0.0,0.0,0.0,0.0,0.0,0.0,0.0,0.0,0.0,0.0,0.0,0.0,0.0,0.0,0.0,0.0,0.0,0.0,0.0,0.0,0.0,0.0,0.0,0.0,0.0,0.0,0.0,0.0,0.0,0.0,0.0,0.0,0.0,0.0,0.0,0.0,0.0,0.0,0.0,0.0,0.0,0.0,0.0,0.0,0.0,0.0,0.0,0.0,0.0,0.0,0.0,0.0,0.0,0.0,0.0,0.0,0.0,0.0,0.0,0.0,0.0,0.0,0.0,0.0,0.0,0.0,0.0,0.0,0.0,0.0,0.0,0.0,0.0,0.0,0.0,0.0,0.0,0.0,0.0,0.0,0.0,0.0,0.6063,0.6385,0.6465,0.6184,0.3112,0.0847,0.0075,0.0,0.0,0.0,0.0,0.0,0.0,0.0,0.0,0.0,0.0,0.0,0.0,0.0,0.0,0.0,0.0,0.0,0.0,0.0,0.0,0.0,0.0,0.0,0.0,0.0,0.0,0.0,0.0,0.0,0.0,0.0,0.0,0.0,0.0,0.0,0.0,0.0,0.0,0.0,0.0,0.0,0.0,0.0,0.0,0.0,0.0,0.0,0.0,0.0,0.0,0.0,0.0,0.0,0.0,0.0,0.0,0.0,0.0,0.0,0.0,0.0,0.0,0.0,0.0,0.0,0.0,0.0,0.0,0.0,0.0,0.0,0.0,0.0,0.0,0.0,0.0,0.0,0.0,0.0,0.0,0.0,0.0,0.0,0.0,0.0,0.0,0.0,0.0,0.0,0.0,0.0,0.0,0.0,0.0,0.0,0.0,0.0,0.0,0.0,0.0,0.0,0.0,0.0,0.0,0.0,0.0,0.5719,0.5672,0.597,0.312,0.0831,0.0074,0.0,0.0,0.0,0.0,0.0,0.0,0.0,0.0,0.0,0.0,0.0,0.0,0.0,0.0,0.0,0.0,0.0,0.0,0.0,0.0,0.0,0.0,0.0,0.0,0.0,0.0,0.0,0.0,0.0,0.0,0.0,0.0,0.0,0.0,0.0,0.0,0.0,0.0,0.0,0.0,0.0,0.0,0.0,0.0,0.0,0.0,0.0,0.0,0.0,0.0,0.0,0.0,0.0,0.0,0.0,0.0,0.0,0.0,0.0,0.0,0.0,0.0,0.0,0.0,0.0,0.0,0.0,0.0,0.0,0.0,0.0,0.0,0.0,0.0,0.0,0.0,0.0,0.0,0.0,0.0,0.0,0.0,0.0,0.0,0.0,0.0,0.0,0.0,0.0,0.0,0.0,0.0,0.0,0.0,0.0,0.0,0.0,0.0,0.0,0.0,0.0,0.0,0.0,0.0,0.0,0.0,0.5791,0.5753,0.5829,0.4032,0.2115,0.0148,0.0,0.0,0.0,0.0,0.0,0.0,0.0,0.0,0.0,0.0,0.0,0.0,0.0,0.0,0.0,0.0,0.0,0.0,0.0,0.0,0.0,0.0,0.0,0.0,0.0,0.0,0.0,0.0,0.0,0.0,0.0,0.0,0.0,0.0,0.0,0.0,0.0,0.0,0.0,0.0,0.0,0.0,0.0,0.0,0.0,0.0,0.0,0.0,0.0,0.0,0.0,0.0,0.0,0.0,0.0,0.0,0.0,0.0,0.0,0.0,0.0,0.0,0.0,0.0,0.0,0.0,0.0,0.0,0.0,0.0,0.0,0.0,0.0,0.0,0.0,0.0,0.0,0.0,0.0,0.0,0.0,0.0,0.0,0.0,0.0,0.0,0.0,0.0,0.0,0.0,0.0,0.0,0.0,0.0,0.0,0.0,0.0,0.0,0.0,0.0,0.0,0.0,0.0,0.0,0.0,0.0,0.3355,0.3268,0.3779,0.1981,0.0533,0.0076,0.0,0.0,0.0,0.0,0.0,0.0,0.0,0.0,0.0,0.0,0.0,0.0,0.0,0.0,0.0,0.0,0.0,0.0,0.0,0.0,0.0,0.0,0.0,0.0,0.0,0.0,0.0,0.0,0.0,0.0,0.0,0.0,0.0,0.0,0.0,0.0,0.0,0.0,0.0,0.0,0.0,0.0,0.0,0.0,0.0,0.0,0.0,0.0,0.0,0.0,0.0,0.0,0.0,0.0,0.0,0.0,0.0,0.0,0.0,0.0,0.0,0.0,0.0,0.0,0.0,0.0,0.0,0.0,0.0,0.0,0.0,0.0,0.0,0.0,0.0,0.0,0.0,0.0,0.0,0.0,0.0,0.0,0.0,0.0,0.0,0.0,0.0,0.0,0.0,0.0,0.0,0.0,0.0,0.0,0.0,0.0,0.0,0.0,0.0,0.0,0.0,0.0,0.0,0.0,0.0,0.0,0.1928,0.2694,0.3088,0.2133,0.1068,0.0076,0.0,0.0,0.0,-0.062,0.0,0.0,0.0,0.0,0.0,0.0,0.0,0.0,0.0,0.0,0.0,0.0,0.0,0.0,0.0,0.0,0.0,0.0,0.0,0.0,0.0,0.0,0.0,0.0,0.0,0.0,0.0,0.0,0.0,0.0,0.0,0.0,0.0,0.0,0.0,0.0,0.0,0.0,0.0,0.0,0.0,0.0,0.0,0.0,0.0,0.0,0.0,0.0,0.0,0.0,0.0,0.0,0.0,0.0,0.0,0.0,0.0,0.0,0.0,0.0,0.0,0.0,0.0,0.0,0.0,0.0,0.0,0.0,0.0,0.0,0.0,0.0,0.0,0.0,0.0,0.0,0.0,0.0,0.0,0.0,0.0,0.0,0.0,0.0,0.0,0.0,0.0,0.0,0.0,0.0,0.0,0.0,0.0,0.0,0.0,0.0,0.0,0.0,0.0,0.0,0.0,0.0,0.0,0.2931,0.2661,0.2649,0.1906,0.0153,0.0,-0.0069,-0.0329,0.0,0.0,0.0,0.0,0.0,0.0,0.0,0.0,0.0,0.0,0.0,0.0,0.0,0.0,0.0,0.0,0.0,0.0,0.0,0.0,0.0,0.0,0.0,0.0,0.0,0.0,0.0,0.0,0.0,0.0,0.0,0.0,0.0,0.0,0.0,0.0,0.0,0.0,0.0,0.0,0.0,0.0,0.0,0.0,0.0,0.0,0.0,0.0,0.0,0.0,0.0,0.0,0.0,0.0,0.0,0.0,0.0,0.0,0.0,0.0,0.0,0.0,0.0,0.0,0.0,0.0,0.0,0.0,0.0,0.0,0.0,0.0,0.0,0.0,0.0,0.0,0.0,0.0,0.0,0.0,0.0,0.0,0.0,0.0,0.0,0.0,0.0,0.0,0.0,0.0,0.0,0.0,0.0,0.0,0.0,0.0,0.0,0.0,0.0,0.0,0.0,0.0,0.0,0.0,0.2056,0.0619,0.0515,0.0382,0.0,0.0,-0.0485,-0.1705,0.0,0.0,0.0,0.0,0.0,0.0,0.0,0.0,0.0,0.0,0.0,0.0,0.0,0.0]}],[{"header":{"parameterUnit":"kt","parameterCategory":2,"dx":1,"dy":1,"la1":29.285339999999998,"la2":30.599998999999997,"lo1":-89.70041500000002,"lo2":-87.6738589999976,"nx":112,"ny":82,"refTime":"2022-10-15T00:00:00:Z","depth":0,"parameterNumber":2,"parameterNumberName":"V-component_of_WINDS"},"data":[9.6091,9.7154,0.0,9.0814,8.8915,0.0,7.931,7.8589,7.8929,7.7046,7.8051,7.9803,8.1565,7.9114,7.7032,7.7564,7.6197,7.4223,0.0,7.2628,0.0,0.0,0.0,8.9257,0.0,0.0,0.0,0.0,0.0,0.0,0.0,0.0,11.458,11.3479,11.1239,11.0822,11.253,11.4239,11.5871,11.7428,11.9136,11.9933,11.9933,11.9933,11.9933,11.9933,11.9933,11.9933,11.9933,11.9933,11.9933,11.9933,11.9933,11.9933,11.9933,11.9933,11.9933,11.9933,11.9933,12.1034,12.2553,12.316,12.4489,12.6008,12.6615,12.7564,12.84,12.84,12.9197,13.0032,13.0032,13.0032,13.0032,13.0032,13.0032,13.0032,13.0032,13.0032,13.0032,13.0032,13.0032,13.0032,13.0032,13.0032,13.0032,13.0032,13.0032,13.0032,13.0032,13.0032,13.0032,13.0032,13.0032,13.0032,13.0032,13.0032,13.0032,13.0032,13.0032,13.0032,13.0032,13.0032,13.0032,13.0032,13.0032,12.9867,12.9453,12.9354,12.9044,12.8506,12.8389,12.8266,0.0,0.0,9.4117,8.6789,8.4132,8.155,7.4868,7.4223,7.4525,7.2639,7.5088,7.6993,7.5106,7.4899,7.483,7.4261,7.4678,7.464,0.0,7.335,0.0,0.0,0.0,0.0,0.0,0.0,0.0,0.0,0.0,0.0,0.0,11.4808,11.3707,11.2606,11.0898,11.0556,11.1657,11.3365,11.5036,11.663,11.8301,11.9364,11.9933,11.9933,11.9933,11.9933,11.9933,11.9933,11.9933,11.9933,11.9933,11.9933,11.9933,11.9933,11.9933,11.9933,11.9933,11.9933,11.9933,12.0655,12.1718,12.2249,12.3236,12.4261,12.4831,12.616,12.7527,12.7527,12.8741,13.0032,13.0032,13.0032,13.0032,13.0032,13.0032,13.0032,13.0032,13.0032,13.0032,13.0032,13.0032,13.0032,13.0032,13.0032,13.0032,13.0032,13.0032,13.0032,13.0032,13.0032,13.0032,13.0032,13.0032,13.0032,13.0032,13.0032,13.0032,13.0032,13.0032,13.0032,13.0032,13.0032,12.9993,12.9867,12.9867,12.9672,12.9322,12.9195,12.8907,12.8506,12.8409,12.8266,9.3054,9.2143,9.0244,8.2044,7.9994,7.8247,7.1565,7.2552,7.4413,7.2818,7.5058,7.6842,7.5248,7.4944,7.4413,7.2818,7.4109,0.0,0.0,7.54,7.8589,0.0,0.0,0.0,0.0,0.0,0.0,0.0,0.0,0.0,11.6744,11.4277,11.253,11.2454,11.086,11.0024,11.0024,11.1695,11.3365,11.5036,11.663,11.8263,11.9857,11.9933,11.9933,11.9933,11.9933,11.9933,11.9933,11.9933,11.9933,11.9933,11.9933,11.9933,11.9933,11.9933,11.9933,11.9933,11.9933,11.9933,12.0199,12.1832,12.2401,12.2705,12.4337,12.6008,12.7375,12.7375,12.859,12.9956,12.9956,12.9994,13.0032,13.0032,13.0032,13.0032,13.0032,13.0032,13.0032,13.0032,13.0032,13.0032,13.0032,13.0032,13.0032,13.0032,13.0032,13.0032,13.0032,13.0032,13.0032,13.0032,13.0032,13.0032,13.0032,13.0032,13.0032,13.0032,13.0032,13.0032,13.0032,13.0032,12.9867,12.9459,12.9453,12.9314,12.9071,12.8657,12.8506,12.8469,12.8191,12.8094,8.4739,8.4322,8.4056,7.9424,7.8247,7.7108,7.278,7.1565,7.1565,7.2362,7.2287,0.0,0.0,0.0,7.3463,7.4223,0.0,7.9994,0.0,8.2841,0.0,0.0,0.0,0.0,0.0,0.0,0.0,0.0,0.0,0.0,11.3555,11.3024,11.1999,11.0746,11.0252,11.0024,11.0024,11.1695,11.2796,11.3251,11.6061,11.7655,11.8149,11.9364,11.9933,11.9933,11.9933,11.9933,11.9933,11.9933,11.9933,11.9933,11.9933,11.9933,11.9933,11.9933,11.9933,11.9933,11.9933,11.9933,12.0009,12.0465,12.0617,12.0731,12.1186,12.2515,12.3844,12.3844,12.597,12.821,12.821,12.9121,13.0032,13.0032,13.0032,13.0032,13.0032,13.0032,13.0032,13.0032,13.0032,13.0032,13.0032,13.0032,13.0032,13.0032,13.0032,13.0032,13.0032,13.0032,13.0032,13.0032,13.0032,13.0032,13.0032,13.0032,13.0032,13.0032,13.0032,13.0032,13.0032,13.0032,12.9867,12.9459,12.9453,12.9195,12.8662,12.8541,12.8389,12.8206,12.8154,12.8094,8.1816,8.174,8.2347,7.7678,7.8057,7.8171,7.2704,7.2325,7.3046,7.259,0.0,0.0,0.0,0.0,0.0,0.0,8.0373,0.0,0.0,0.0,9.3206,0.0,0.0,0.0,0.0,0.0,0.0,0.0,0.0,10.7936,11.2302,11.1885,11.1049,11.0062,11.0024,11.0024,11.0024,11.1011,11.1847,11.2568,11.4466,11.6099,11.7466,11.8415,11.925,11.9933,11.9933,11.9933,11.9933,11.9933,11.9933,11.9933,11.9933,11.9933,11.9933,11.9933,11.9933,11.9933,11.9933,11.9933,11.9933,11.9933,11.9933,11.9933,11.9933,12.111,12.2477,12.2477,12.4375,12.6615,12.7337,12.8248,12.9159,12.988,13.0032,13.0032,13.0032,13.0032,13.0032,13.0032,13.0032,13.0032,13.0032,13.0032,13.0032,13.0032,13.0032,13.0032,13.0032,13.0032,13.0032,13.0032,13.0032,13.0032,13.0032,13.0032,13.0032,13.0032,13.0032,13.0032,13.0032,13.0032,12.9817,12.9297,12.9288,12.897,12.832,12.832,12.8278,12.8266,12.8141,12.8164,8.1322,8.1322,8.2195,7.6691,7.8323,7.9614,7.316,0.0,7.7222,7.4944,0.0,7.6729,7.6729,0.0,0.0,0.0,0.0,0.0,8.6638,9.0586,9.5825,0.0,0.0,0.0,0.0,11.0784,11.0632,11.215,10.9493,10.9075,11.2112,11.0822,11.0024,11.0024,11.0024,11.0024,11.0024,11.0024,11.0784,11.2264,11.2454,11.4163,11.7162,11.7314,11.8339,11.9933,11.9933,12.0047,12.0199,12.0009,12.0047,12.0199,12.0009,11.9933,11.9933,11.9933,11.9933,11.9933,11.9933,11.9933,11.9933,11.9933,11.9933,11.9933,11.9933,12.0996,12.2173,12.2173,12.3388,12.5059,12.6539,12.7071,12.764,12.9349,12.9767,12.9804,12.9994,13.0032,13.0032,13.0032,13.0032,13.0032,13.0032,13.0032,13.0032,13.0032,13.0032,13.0032,13.0032,13.0032,13.0032,13.0032,13.0032,13.0032,13.0032,13.0032,13.0032,13.0032,13.0032,13.0032,13.0032,13.0032,12.9718,12.9096,12.9082,12.8797,12.8094,12.813,12.8288,12.8541,12.8294,12.8294,7.5094,7.4365,7.5104,7.6689,7.5741,7.5741,0.0,0.0,0.0,8.565,8.6903,8.7131,8.7131,0.0,0.0,0.0,0.0,0.0,0.0,9.8255,0.0,0.0,0.0,0.0,0.0,10.9417,11.0176,11.048,10.991,10.9835,11.048,11.0214,11.0024,11.0024,11.0024,11.0024,11.0024,11.0024,11.0176,11.0518,11.1885,11.3593,11.5567,11.682,11.8339,11.9933,11.9933,12.0731,12.187,12.0503,12.0731,12.1832,12.0465,11.9933,11.9933,11.9933,11.9933,11.9933,11.9933,11.9933,11.9933,11.9933,11.9933,11.9933,11.9933,12.0161,12.0427,12.0427,12.1642,12.3009,12.335,12.4451,12.5894,12.7602,12.802,12.8362,12.9767,13.0032,13.0032,13.0032,13.0032,13.0032,13.0032,13.0032,13.0032,13.0032,13.0032,13.0032,13.0032,13.0032,13.0032,13.0032,13.0032,13.0032,13.0032,13.0032,13.0032,13.0032,13.0032,13.0032,13.0032,13.0032,12.9718,12.9096,12.9271,12.8944,12.8094,12.8299,12.8614,12.8942,12.891,12.8744,7.222,7.2288,7.353,7.3728,7.5058,0.0,0.0,8.0032,8.2196,8.5499,8.6865,8.7966,8.9675,9.1383,9.2522,9.2522,9.7382,10.0913,10.0115,10.1406,0.0,0.0,0.0,0.0,10.7329,10.9037,11.0024,11.0024,11.0024,11.0024,11.0024,11.0024,11.0024,11.0024,11.0024,11.0024,11.0024,11.0024,11.0024,11.0024,11.086,11.215,11.3821,11.4618,11.6327,11.8681,11.8681,11.963,12.111,12.0275,12.0921,12.2287,12.0579,11.9933,11.9933,11.9933,11.9933,11.9933,11.9933,11.9933,11.9933,11.9933,11.9933,11.9933,11.9933,11.9933,11.9933,11.9933,12.0541,12.1376,12.2249,12.3085,12.4148,12.5856,12.6236,12.6729,12.84,12.8779,12.9045,12.988,13.0032,13.0032,13.0032,13.0032,13.0032,13.0032,13.0032,13.0032,13.0032,13.0032,13.0032,13.0032,13.0032,13.0032,13.0032,13.0032,13.0032,13.0032,13.0032,13.0032,13.0032,13.0032,12.9905,12.9573,12.9491,12.9165,12.8581,12.8873,12.9053,12.9261,12.9117,12.9046,7.1134,7.2411,7.4291,7.2778,7.6007,0.0,7.7716,8.0753,8.436,8.5992,8.7663,8.9599,9.1991,9.3813,9.4496,9.3168,9.742,10.114,10.1862,0.0,0.0,0.0,0.0,0.0,10.6873,10.8847,11.0024,11.0024,11.0024,11.0024,11.0024,11.0024,11.0024,11.0024,11.0024,11.0024,11.0024,11.0024,11.0024,11.0024,11.0024,11.0898,11.253,11.253,11.4314,11.739,11.739,11.8567,12.0389,12.0085,12.0731,12.1832,12.0465,11.9933,11.9933,11.9933,11.9933,11.9933,11.9933,11.9933,11.9933,11.9933,11.9933,11.9933,11.9933,11.9933,11.9933,11.9933,11.9933,12.0237,12.1604,12.1984,12.2401,12.411,12.4489,12.4983,12.6653,12.7299,12.7906,12.9273,12.9804,13.0032,13.0032,13.0032,13.0032,13.0032,13.0032,13.0032,13.0032,13.0032,13.0032,13.0032,13.0032,13.0032,13.0032,13.0032,13.0032,13.0032,13.0032,13.0032,13.0032,13.0032,13.0032,13.0032,12.9638,12.9322,12.9084,12.9399,12.9574,12.9569,12.9352,12.9335,7.1323,7.3283,7.5657,7.9954,7.9424,0.0,9.2181,9.1877,9.1269,9.8673,10.1558,10.2393,10.1292,10.2431,10.3532,10.3342,10.3912,10.3418,10.0609,10.0191,0.0,0.0,0.0,0.0,10.5203,10.8126,11.0024,11.0024,11.0024,11.0024,11.0024,11.0024,11.0024,11.0024,11.0024,11.0024,11.0024,11.0024,11.0024,11.0024,11.0024,11.0898,11.253,11.253,11.4314,11.739,11.739,11.9212,12.2059,12.0541,12.0047,12.0199,12.0009,11.9933,11.9933,11.9933,11.9933,11.9933,11.9933,11.9933,11.9933,11.9933,11.9933,11.9933,11.9933,11.9933,11.9933,11.9933,11.9933,11.9971,12.0161,12.0199,12.0617,12.2363,12.2743,12.3198,12.4907,12.6463,12.7564,12.7754,12.9007,13.0032,13.0032,13.0032,13.0032,13.0032,13.0032,13.0032,13.0032,13.0032,13.0032,13.0032,13.0032,13.0032,13.0032,13.0032,13.0032,13.0032,13.0032,13.0032,13.0032,13.0032,13.0032,13.0032,12.9638,12.9322,12.9084,12.9664,12.9993,12.9993,12.9953,12.9774,7.1096,7.279,7.4291,7.8549,0.0,0.0,8.8915,9.089,9.275,9.723,9.8673,9.9546,10.0761,10.1558,10.2014,10.2014,10.2014,10.152,10.0115,9.9926,9.9926,0.0,0.0,0.0,0.0,10.7139,10.8961,10.9948,11.0024,11.0024,11.0024,11.0024,11.0024,11.0024,11.0024,11.0024,11.0024,11.0024,11.0024,11.0024,11.0024,11.0404,11.1087,11.1087,11.291,11.6061,11.6061,11.7921,12.0921,12.0237,11.9933,11.9933,11.9933,11.9933,11.9933,11.9933,11.9933,11.9933,11.9933,11.9933,11.9933,11.9933,11.9933,11.9933,11.9933,11.9933,11.9933,11.9933,11.9933,11.9933,11.9933,11.9933,12.0123,12.0845,12.0996,12.1452,12.316,12.4869,12.6046,12.6046,12.7413,12.8893,12.988,13.0032,13.0032,13.0032,13.0032,13.0032,13.0032,13.0032,13.0032,13.0032,13.0032,13.0032,13.0032,13.0032,13.0032,13.0032,13.0032,13.0032,13.0032,13.0032,13.0032,13.0032,12.9871,12.9767,12.9644,12.9909,13.0032,13.0032,13.0032,12.9954,7.1179,0.0,0.0,0.0,0.0,0.0,8.8574,9.1231,9.3813,9.5977,9.6395,9.7116,9.947,9.9926,9.9926,9.9926,9.9926,9.9926,9.9926,9.9926,9.9926,0.0,0.0,0.0,0.0,0.0,0.0,0.0,10.9759,11.0024,11.0024,11.0024,11.0024,11.0024,11.0024,11.0024,11.0024,11.0024,11.0024,11.0024,11.0024,11.0024,11.0024,11.0024,11.1619,11.439,11.4884,11.6403,11.8643,11.906,11.925,11.9288,11.9744,11.9933,11.9933,11.9933,11.9933,11.9933,11.9933,11.9933,11.9933,11.9933,11.9933,11.9933,11.9933,11.9933,11.9933,11.9933,11.9933,11.9933,11.9933,11.9933,11.9933,11.9933,11.9933,12.0275,12.149,12.3085,12.4299,12.4299,12.5666,12.7223,12.8438,12.9045,12.9349,12.9349,12.9767,13.0032,13.0032,13.0032,13.0032,13.0032,13.0032,13.0032,13.0032,13.0032,13.0032,13.0032,13.0032,13.0032,13.0032,13.0032,13.0032,13.0032,13.0032,13.0032,13.0032,13.0032,13.0032,13.0032,13.0032,13.0032,0.0,0.0,0.0,8.5954,8.7283,8.9523,9.761,9.7116,9.5901,9.9128,9.9774,9.9812,9.9888,9.9926,9.9926,9.9926,9.9926,9.9926,9.9926,9.9926,9.9926,9.9926,0.0,0.0,0.0,0.0,0.0,0.0,10.9075,11.0024,11.0024,11.0024,11.0024,11.0024,11.0024,11.0024,11.0024,11.0024,11.0024,11.0024,11.0024,11.0024,11.0024,11.0024,11.0974,11.272,11.4352,11.515,11.534,11.6858,11.7504,11.7655,11.9288,11.9933,11.9933,11.9933,11.9933,11.9933,11.9933,11.9933,11.9933,11.9933,11.9933,11.9933,11.9933,11.9933,11.9933,11.9933,11.9933,11.9933,11.9933,11.9933,11.9933,11.9933,11.9933,11.9971,12.0009,12.1338,12.2553,12.2553,12.3882,12.5097,12.5135,12.6501,12.7602,12.7602,12.9007,13.0032,13.0032,13.0032,13.0032,13.0032,13.0032,13.0032,13.0032,13.0032,13.0032,13.0032,13.0032,13.0032,13.0032,13.0032,13.0032,13.0032,13.0032,13.0032,13.0032,13.0032,13.0032,13.0032,13.0032,13.0032,7.6115,7.9498,8.3107,8.9295,9.2522,9.4914,9.7724,9.9204,9.9963,9.9926,9.9926,9.9926,9.9926,9.9926,9.9926,9.9926,9.9926,9.9926,9.9926,9.9926,9.9926,9.9926,10.0419,10.1178,0.0,0.0,0.0,0.0,0.0,0.0,10.9948,11.0024,11.0024,11.0024,11.0024,11.0024,11.0024,11.0024,11.0024,11.0024,11.0024,11.0024,11.0024,11.0024,11.0936,11.2606,11.3138,11.3403,11.3517,11.5188,11.6479,11.7466,11.8035,11.8946,11.9933,11.9933,11.9933,11.9933,11.9933,11.9933,11.9933,11.9933,11.9933,11.9933,11.9933,11.9933,11.9933,11.9933,11.9933,11.9933,11.9933,11.9933,11.9933,11.9933,11.9933,11.9933,11.9933,12.0389,12.111,12.2249,12.2933,12.3654,12.4793,12.5438,12.6198,12.7337,12.802,12.8779,12.9918,13.0032,13.0032,13.0032,13.0032,13.0032,13.0032,13.0032,13.0032,13.0032,13.0032,13.0032,13.0032,13.0032,13.0032,13.0032,13.0032,13.0032,13.0032,13.0032,13.0032,13.0032,13.0032,13.0032,7.9234,8.2537,8.5688,9.1877,9.5522,9.7724,9.8293,10.0039,10.1216,10.0153,9.9926,9.9926,9.9926,9.9926,9.9926,9.9926,9.9926,9.9926,9.9926,9.9926,9.9926,9.9926,9.9926,10.0343,10.1444,0.0,0.0,0.0,0.0,10.7974,10.9037,10.9683,11.0024,11.0024,11.0024,11.0024,11.0024,11.0024,11.0024,11.0024,11.0024,11.0024,11.0024,11.0024,11.0632,11.1619,11.1619,11.1619,11.1771,11.3479,11.477,11.5757,11.6972,11.8073,11.9098,11.9706,11.9933,11.9933,11.9933,11.9933,11.9933,11.9933,11.9933,11.9933,11.9933,11.9933,11.9933,11.9933,11.9933,11.9933,11.9933,11.9933,11.9933,11.9933,11.9933,11.9933,11.9933,11.9933,12.0275,12.1338,12.1566,12.1908,12.2971,12.3692,12.4451,12.5514,12.6729,12.7906,12.9007,12.9691,13.0032,13.0032,13.0032,13.0032,13.0032,13.0032,13.0032,13.0032,13.0032,13.0032,13.0032,13.0032,13.0032,13.0032,13.0032,13.0032,13.0032,13.0032,13.0032,13.0032,13.0032,13.0032,8.1246,8.5195,8.9029,9.4079,9.6509,9.8103,9.9584,9.9926,9.9926,9.9926,9.9926,9.9926,9.9926,9.9926,9.9926,9.9926,9.9926,9.9926,9.9926,9.9926,9.9926,9.9926,9.9926,9.9926,9.9926,10.1368,0.0,0.0,10.5431,10.7291,10.7481,10.8999,10.991,11.0024,11.0024,11.0024,11.0024,11.0024,11.0024,11.0024,11.0024,11.0024,11.0024,11.0024,11.0024,11.0024,11.0024,11.0024,11.0138,11.1733,11.2454,11.2872,11.5947,11.72,11.7504,11.9174,11.9782,11.982,11.9895,11.9933,11.9933,11.9933,11.9933,11.9933,11.9933,11.9933,11.9933,11.9933,11.9933,11.9933,11.9933,11.9933,11.9933,11.9933,11.9933,11.9933,11.9933,11.9933,11.9933,11.9933,11.9933,11.9933,11.9933,12.1262,12.2363,12.2439,12.5211,12.7299,12.7375,12.8855,12.9918,12.9918,12.9994,13.0032,13.0032,13.0032,13.0032,13.0032,13.0032,13.0032,13.0032,13.0032,13.0032,13.0032,13.0032,13.0032,13.0032,13.0032,13.0032,13.0032,13.0032,13.0032,8.3622,8.9361,9.3775,9.7684,9.9014,9.9432,9.9812,9.9926,9.9926,9.9926,9.9926,9.9926,9.9926,9.9926,9.9926,9.9926,9.9926,9.9926,9.9926,9.9926,9.9926,9.9926,9.9926,9.9926,9.9926,10.0305,10.1064,0.0,10.3229,10.4823,10.7367,10.7898,10.8734,10.9986,11.0024,11.0024,11.0024,11.0024,11.0024,11.0024,11.0024,11.0024,11.0024,11.0024,11.0024,11.0024,11.0024,11.0024,11.0062,11.048,11.1391,11.2644,11.3479,11.4542,11.5871,11.7466,11.8035,11.8225,11.9478,11.9933,11.9933,11.9933,11.9933,11.9933,11.9933,11.9933,11.9933,11.9933,11.9933,11.9933,11.9933,11.9933,11.9933,11.9933,11.9933,11.9933,11.9933,11.9933,11.9933,11.9933,11.9933,11.9933,11.9933,12.0275,12.0996,12.2249,12.3198,12.4224,12.5476,12.7109,12.8172,12.8172,12.9273,13.0032,13.0032,13.0032,13.0032,13.0032,13.0032,13.0032,13.0032,13.0032,13.0032,13.0032,13.0032,13.0032,13.0032,13.0032,13.0032,13.0032,13.0032,13.0032,8.4406,9.0749,9.6548,10.0112,10.0457,9.9926,9.9926,9.9926,9.9926,9.9926,9.9926,9.9926,9.9926,9.9926,9.9926,9.9926,9.9926,9.9926,9.9926,9.9926,9.9926,9.9926,9.9926,9.9926,9.9926,9.9926,10.0305,10.1254,10.2014,10.3266,10.5165,10.6683,10.7936,10.8885,10.9645,11.0024,11.0024,11.0024,11.0024,11.0024,11.0024,11.0024,11.0024,11.0024,11.0024,11.0024,11.0024,11.0024,11.0024,11.0024,11.0594,11.1505,11.2264,11.3138,11.4163,11.5757,11.6365,11.6592,11.8263,11.8832,11.8946,11.9706,11.9933,11.9933,11.9933,11.9933,11.9933,11.9933,11.9933,11.9933,11.9933,11.9933,11.9933,11.9933,11.9933,11.9933,11.9933,11.9933,11.9933,11.9933,11.9933,11.9933,11.9933,11.9933,12.0275,12.1186,12.1984,12.2819,12.3768,12.5362,12.6691,12.7451,12.8362,12.9235,12.9994,13.0032,13.0032,13.0032,13.0032,13.0032,13.0032,13.0032,13.0032,13.0032,13.0032,13.0032,13.0032,13.0032,13.0032,13.0032,13.0032,13.0032,8.5288,9.1137,9.7747,10.1206,10.0949,9.9887,9.9925,9.9926,9.9926,9.9926,9.9926,9.9926,9.9926,9.9926,9.9926,9.9926,9.9926,9.9926,9.9926,9.9926,9.9926,9.9926,9.9926,9.9926,9.9926,9.9926,9.9926,9.9926,10.1292,10.2203,10.2431,10.5203,10.7025,10.7481,10.8923,10.9797,11.0024,11.0024,11.0024,11.0024,11.0024,11.0024,11.0024,11.0024,11.0024,11.0024,11.0024,11.0024,11.0024,11.0024,11.0024,11.0176,11.1619,11.2226,11.2416,11.4125,11.4732,11.496,11.6554,11.7238,11.7655,11.9136,11.9744,11.9933,11.9933,11.9933,11.9933,11.9933,11.9933,11.9933,11.9933,11.9933,11.9933,11.9933,11.9933,11.9933,11.9933,11.9933,11.9933,11.9933,11.9933,11.9933,11.9933,11.9933,11.9933,11.9933,12.1186,12.2135,12.2135,12.3616,12.5211,12.6691,12.7261,12.8134,12.9577,12.9918,13.0032,13.0032,13.0032,13.0032,13.0032,13.0032,13.0146,13.0374,13.0602,13.0716,13.0678,13.0488,13.0374,13.0374,13.0146,13.0032,9.0462,9.4178,9.7086,9.9426,9.9827,9.9654,9.9848,9.9926,9.9926,9.9926,9.9926,9.9926,9.9926,9.9926,9.9926,9.9926,9.9926,9.9926,9.9926,9.9926,9.9926,9.9926,9.9926,9.9926,9.9926,9.9926,9.9926,9.9926,10.0191,10.0951,10.2355,10.3001,10.4595,10.7405,10.7784,10.862,10.9986,11.0024,11.0024,11.0024,11.0024,11.0024,11.0024,11.0024,11.0024,11.0024,11.0024,11.0024,11.0024,11.0024,11.0024,11.0024,11.0366,11.0442,11.067,11.234,11.2986,11.3213,11.4884,11.6327,11.7466,11.7769,11.8794,11.9933,11.9933,11.9933,11.9933,11.9933,11.9933,11.9933,11.9933,11.9933,11.9933,11.9933,11.9933,11.9933,11.9933,11.9933,11.9933,11.9933,11.9933,11.9933,11.9933,11.9933,11.9933,11.9933,12.0199,12.0351,12.0351,12.187,12.3009,12.3312,12.5856,12.764,12.7906,12.9235,13.0032,13.0032,13.0032,13.0032,13.0032,13.0032,13.0716,13.212,13.3487,13.4171,13.4057,13.2766,13.2158,13.212,13.0716,13.0032,8.5434,9.0365,9.5362,9.6349,9.8007,9.946,9.9578,9.9679,9.9712,9.9712,9.9806,9.9926,9.9926,9.9926,9.9926,9.9926,9.9926,9.9926,9.9926,9.9926,9.9926,9.9926,9.9926,9.9926,9.9926,9.9926,9.9926,9.9926,9.9926,10.0267,10.1064,10.1938,10.357,10.6076,10.7025,10.8316,10.9986,11.0024,10.9945,10.9844,10.9844,10.9844,10.9844,10.9844,10.9899,11.0024,11.0024,11.0024,11.0024,11.0024,11.0024,11.0024,11.0024,11.0024,11.01,11.0936,11.1239,11.1467,11.3176,11.4239,11.5036,11.5909,11.7276,11.8605,11.8605,11.925,11.9933,11.9933,11.9933,11.9933,11.9933,11.9933,11.9933,11.9933,11.9933,11.9933,11.9933,11.9933,11.9933,11.9933,11.9933,11.9933,11.9933,11.9933,11.9933,11.9933,11.9933,11.9933,11.9933,12.0617,12.149,12.2363,12.392,12.5249,12.6122,12.7754,12.8703,12.8703,12.9539,13.0032,13.0032,13.0905,13.1741,13.2538,13.4171,13.4968,13.4892,13.3335,13.2576,13.2538,13.083,13.0032,8.1919,8.7453,9.4085,9.5118,9.6518,9.7936,9.9072,9.9386,9.9391,9.9391,9.9583,9.9798,9.9806,9.9846,9.9847,9.9925,9.9926,9.9926,9.9926,9.9926,9.9926,9.9926,9.9926,9.9926,9.9926,9.9926,9.9887,9.9846,9.9846,9.9846,9.9846,10.1099,10.2809,10.4899,10.6266,10.7936,10.9905,10.9943,10.9811,0.0,10.9583,10.96,10.9692,10.9664,10.9752,11.0024,11.0024,11.0024,11.0024,11.0024,11.0024,11.0024,11.0024,11.0024,11.0024,11.0024,11.0024,11.0214,11.1543,11.2226,11.2758,11.4087,11.5833,11.739,11.739,11.8605,11.9933,11.9933,11.9933,11.9933,11.9933,11.9933,11.9933,11.9933,11.9933,11.9933,11.9933,11.9933,11.9933,11.9933,11.9933,11.9933,11.9933,11.9933,11.9933,11.9933,11.9933,11.9933,11.9933,11.9933,12.0427,12.1794,12.2249,12.3009,12.4337,12.6008,12.7109,12.7489,12.8741,12.9653,13.0032,13.1665,13.2728,13.3107,13.5006,13.5993,13.5993,13.4398,13.3601,13.3563,13.1855,13.1095,8.9285,9.175,9.4628,9.9137,9.62,9.3476,9.8249,9.914,9.8979,9.8979,9.9196,9.9439,9.9527,9.9545,9.9651,9.9887,9.9926,9.9926,9.9926,9.9926,9.9926,9.9926,9.9926,9.9926,9.9926,9.9926,9.9806,9.9591,9.9545,9.9545,9.9545,9.9697,10.1409,10.4861,10.5127,10.6636,10.9631,10.9669,10.9664,10.9649,10.9407,10.9551,10.9985,10.9742,10.9752,11.0024,11.0024,11.0024,11.0024,11.0024,11.0024,11.0024,11.0024,11.0024,11.0024,11.0024,11.0024,11.0024,11.0214,11.1277,11.2568,11.272,11.4884,11.739,11.739,11.8605,11.9933,11.9933,11.9933,11.9933,11.9933,11.9933,11.9933,11.9933,11.9933,11.9933,11.9933,11.9933,11.9933,11.9933,11.9933,11.9933,11.9933,11.9933,11.9933,11.9933,11.9933,11.9933,11.9933,11.9933,12.0009,12.0161,12.1566,12.2515,12.2667,12.4261,12.5894,12.7413,12.764,12.8438,12.9994,13.1665,13.3297,13.4854,13.7929,13.9486,13.9486,13.7815,13.698,13.6942,13.5234,13.4512,7.4666,7.9563,8.506,8.7041,9.0933,9.4522,9.5577,9.5749,9.6265,9.8501,9.9155,9.9353,9.9507,9.9532,9.9603,9.9887,9.9926,9.9926,9.9926,9.9926,9.9926,9.9926,9.9926,9.9926,9.9926,9.9762,9.9651,9.9532,9.9443,9.9429,9.9527,9.9532,10.0717,10.3342,10.3291,10.4809,10.8094,10.7962,10.8401,10.9416,10.9316,10.9506,11.0024,10.9745,10.9752,11.0024,11.0024,11.0024,11.0024,11.0024,11.0024,11.0024,11.0024,11.0024,11.0024,11.0024,11.0024,11.0024,11.0024,11.048,11.1049,11.1049,11.2606,11.4466,11.4466,11.6327,11.8415,11.8415,11.9136,11.9933,11.9933,11.9933,11.9933,11.9933,11.9933,11.9933,11.9933,11.9933,11.9933,11.9933,11.9933,11.9933,11.9933,11.9933,11.9933,11.9933,11.9933,11.9933,11.9933,11.9933,11.9933,11.9933,12.0541,12.0958,12.0958,12.2515,12.373,12.4413,12.5438,12.6767,12.8438,13.0146,13.1855,13.3525,13.5765,13.7398,13.8423,13.679,13.6524,13.7398,13.5689,13.493,6.6328,7.16,7.7746,7.9728,8.5583,9.1229,9.25,9.2425,9.3353,9.7905,9.8586,9.8581,9.9347,9.9006,9.8861,9.9643,9.9752,9.9739,9.9739,9.9794,9.9803,9.9803,9.9886,9.9887,9.9804,9.9651,9.9496,9.9356,9.9271,9.9242,9.9341,9.9349,10.0226,10.213,10.2099,10.338,10.6202,10.6621,10.745,10.8615,10.9041,10.9506,11.0024,10.9808,10.9851,11.0024,11.0024,11.0024,11.0024,11.0024,11.0024,11.0024,11.0024,11.0024,11.0024,11.0024,11.0024,11.0024,11.0024,11.0024,11.0024,11.0024,11.1163,11.253,11.253,11.4504,11.682,11.7276,11.8263,11.9288,11.9782,11.9933,11.9933,11.9933,11.9933,11.9933,11.9933,11.9933,11.9933,11.9933,11.9933,11.9933,11.9933,11.9933,11.9933,11.9933,11.9933,11.9933,11.9933,11.9933,11.9933,11.9933,11.9933,11.9933,11.9933,12.1034,12.1908,12.2439,12.3578,12.5021,12.6691,12.8893,13.083,13.2538,13.4095,13.5499,13.6676,13.5575,13.5613,13.6638,13.5461,13.5158,7.0838,7.2572,7.5488,8.2106,8.1283,8.1075,8.9322,8.9883,9.0573,9.7192,9.723,9.6725,9.8915,9.7773,9.7131,9.9188,9.9432,9.9318,9.9318,9.9436,9.9532,9.9532,9.9758,9.9806,9.9545,9.9532,9.9356,9.899,9.8934,9.892,9.8934,9.8934,9.9786,10.1597,10.1925,10.2759,10.4197,10.6119,10.7102,10.714,10.8548,10.9506,11.0024,11.0024,11.0024,11.0024,11.0024,11.0024,11.0024,11.0024,11.0024,11.0024,11.0024,11.0024,11.0024,11.0024,11.0024,11.0024,11.0024,11.0024,11.0024,11.0024,11.1163,11.253,11.253,11.3745,11.5415,11.6972,11.7428,11.7807,11.9516,11.9933,11.9933,11.9933,11.9933,11.9933,11.9933,11.9933,11.9933,11.9933,11.9933,11.9933,11.9933,11.9933,11.9933,11.9933,11.9933,11.9933,11.9933,11.9933,11.9933,11.9933,11.9933,11.9933,11.9933,11.9971,12.0655,12.2363,12.2477,12.3236,12.4945,12.8248,13.083,13.2538,13.4095,13.4892,13.493,13.4892,13.4892,13.493,13.4892,13.5803,6.5543,6.9132,7.3207,7.7619,7.9601,8.1732,8.6593,8.82,8.9863,9.4182,9.4669,9.4937,9.6982,9.776,9.8403,9.9268,9.9364,9.9373,9.9443,9.9439,9.9439,9.9517,9.9517,9.9498,9.9394,9.9242,9.9081,9.8934,9.8774,9.8742,9.8943,9.8958,9.9343,10.0176,10.019,10.1015,10.2702,10.4303,10.5781,10.7102,10.7586,10.8451,10.9745,10.9745,10.9851,11.0024,11.0024,11.0024,11.0024,11.0024,11.0024,11.0024,11.0024,11.0024,11.0024,11.0024,11.0024,11.0024,11.0024,11.0024,11.0024,11.0024,11.0404,11.0822,11.0822,11.1999,11.3441,11.3935,11.5681,11.7276,11.6744,11.739,11.8187,11.8187,11.9098,11.9933,11.9933,11.9933,11.9933,11.9933,11.9933,11.9933,11.9933,11.9933,11.9933,11.9933,11.9933,11.9933,11.9933,11.9933,11.9933,11.9933,11.9933,11.9933,11.9933,11.9933,12.0161,12.0693,12.1832,12.3236,12.4907,12.7109,12.9121,13.0792,13.1323,13.2158,13.3297,13.3297,13.3867,13.4892,13.5006,13.5272,6.386,6.7636,7.1399,7.5413,7.6498,7.7978,8.3115,8.4125,8.53,8.9771,9.0705,9.1465,9.3953,9.629,9.8118,9.903,9.9095,9.9057,9.9174,9.9261,9.9373,9.9429,9.9499,9.9498,9.9328,9.9163,9.9017,9.8801,9.8666,9.863,9.879,9.8769,9.8952,9.9285,9.9346,9.9878,10.1072,10.2708,10.4048,10.5051,10.634,10.7548,10.8711,10.9351,10.9752,11.0024,11.0024,11.0024,11.0024,11.0024,11.0024,11.0024,11.0024,11.0024,11.0024,11.0024,11.0024,11.0024,11.0024,11.0024,11.0024,11.0024,11.0024,11.0024,11.0024,11.0746,11.1733,11.2378,11.4011,11.534,11.439,11.5757,11.739,11.739,11.8719,11.9933,11.9933,11.9933,11.9933,11.9933,11.9933,11.9933,11.9933,11.9933,11.9933,11.9933,11.9933,11.9933,11.9933,11.9933,11.9933,11.9933,11.9933,11.9933,11.9933,11.9933,11.9933,11.9933,12.1528,12.3236,12.4907,12.6615,12.8324,12.9994,13.0032,13.0564,13.1627,13.1627,13.212,13.307,13.3145,13.3487,6.5206,6.7636,7.0016,7.4965,7.2946,7.1698,7.9324,7.8816,7.8442,8.4499,8.5845,8.6929,9.0219,9.3472,9.6383,9.8555,9.86,9.8464,9.8688,9.9192,9.9478,9.9498,9.9811,9.9847,9.9337,9.9327,9.9082,9.8613,9.8576,9.8576,9.8576,9.8576,9.8733,9.8948,9.9223,9.9394,9.9527,10.1427,10.2145,10.1681,10.484,10.6605,10.7113,10.8706,10.9639,11.0024,10.9986,10.9986,11.0024,10.9986,10.9986,11.0024,11.0024,11.0024,11.0024,11.0024,11.0024,11.0024,11.0024,11.0024,11.0024,11.0024,11.0024,11.0024,11.0024,11.0024,11.0366,11.1923,11.2378,11.2378,11.2378,11.4694,11.7048,11.7048,11.8453,11.9744,11.9744,11.9857,11.9933,11.9933,11.9933,11.9933,11.9933,11.9933,11.9933,11.9933,11.9933,11.9933,11.9933,11.9933,11.9933,11.9933,11.9933,11.9933,11.9933,11.9933,11.9933,11.9933,12.1528,12.3236,12.4907,12.6615,12.8324,12.9994,13.0032,13.0032,13.0032,13.0032,13.0032,13.0032,13.0032,13.0868,6.5817,6.6789,6.8272,7.3207,7.5451,7.6961,7.8906,7.975,8.0573,8.2069,8.3415,8.491,8.6929,9.0032,9.3695,9.7936,9.7528,9.7582,10.0282,10.0756,10.0892,10.1094,10.1195,10.066,9.917,9.9043,9.89,9.8576,9.8576,9.8576,9.8576,9.8763,9.8962,9.9245,9.9279,9.9394,9.9527,10.1047,10.1692,10.138,10.2343,10.4227,10.6844,10.7397,10.8538,10.9986,10.9803,10.9849,10.9986,10.9803,10.9849,11.0024,11.0024,11.0024,11.0024,11.0024,11.0024,11.0024,11.0024,11.0024,11.0024,11.0024,11.0024,11.0024,11.0024,11.0024,11.01,11.0518,11.0594,11.0594,11.0594,11.215,11.3707,11.3707,11.5909,11.7997,11.7997,11.9022,11.9933,11.9933,11.9933,11.9933,11.9933,11.9933,11.9933,11.9933,11.9933,11.9933,11.9933,11.9933,11.9933,11.9933,11.9933,11.9933,11.9933,11.9933,11.9933,11.9933,12.1528,12.3236,12.4907,12.6615,12.8324,12.9994,13.0032,13.0032,13.0032,13.0032,13.0032,13.0032,13.0032,13.026,6.6963,6.816,6.9169,7.1151,7.2946,7.4441,7.5152,7.6049,7.7118,7.8704,7.975,8.1545,8.5396,8.7041,8.9621,9.5304,9.6127,9.6667,9.8612,9.9645,10.0246,10.0414,10.0557,10.0226,9.9051,9.9069,9.8948,9.8594,9.8576,9.8576,9.8576,9.8698,9.887,9.9143,9.9155,9.9259,9.9416,9.9982,10.0156,10.0034,10.0879,10.2376,10.4444,10.6042,10.7523,10.8885,0.0,10.9674,10.9986,10.9742,10.9794,11.0024,11.0024,11.0024,11.0024,11.0024,11.0024,11.0024,11.0024,11.0024,11.0024,11.0024,11.0024,11.0024,11.0024,11.0024,11.0024,11.0024,11.0024,11.0024,11.0024,11.1277,11.253,11.253,11.4504,11.6327,11.6327,11.7618,11.8756,11.8756,11.9402,11.9933,11.9933,11.9933,11.9933,11.9933,11.9933,11.9933,11.9933,11.9933,11.9933,11.9933,11.9933,11.9933,11.9933,11.9933,11.9933,11.9933,12.0807,12.2401,12.4907,12.6615,12.8324,12.9994,13.0032,13.0032,13.0032,13.0032,13.0032,13.0032,13.0032,13.0032,6.8221,6.9978,7.0651,6.9343,6.9193,6.9717,7.1025,7.1735,7.2946,7.5802,7.6587,7.8457,8.3938,8.4312,8.5583,9.1117,9.4033,9.5902,9.665,9.8227,9.9297,9.9297,9.962,9.9637,9.899,9.9143,9.9057,9.8594,9.8576,9.8576,9.8576,9.8613,9.8712,9.8943,9.8958,9.9005,9.9223,9.8774,9.8576,9.8649,9.9941,10.0946,10.1749,10.4401,10.6241,10.7428,0.0,10.9279,10.9944,10.9734,10.9794,11.0024,11.0024,11.0024,11.0024,11.0024,11.0024,11.0024,11.0024,11.0024,11.0024,11.0024,11.0024,11.0024,11.0024,11.0024,11.0024,11.0024,11.0024,11.0024,11.0024,11.1087,11.215,11.215,11.3479,11.4694,11.4694,11.5947,11.7048,11.7048,11.8187,11.9212,11.9212,11.9402,11.9554,11.9554,11.9744,11.9933,11.9933,11.9933,11.9933,11.9933,11.9933,11.9933,11.9933,11.9933,11.9933,11.9933,11.9933,12.1338,12.4451,12.6236,12.8058,12.9994,13.0032,13.0032,13.0032,13.0032,13.0032,13.0032,13.0032,13.0032,6.8857,6.9193,6.9306,6.9081,6.9978,7.1025,7.1287,7.3544,7.5764,7.6288,7.7447,7.8681,7.9691,8.1994,8.4125,8.5097,9.0107,9.5342,9.9547,10.0593,10.0944,10.0915,10.116,10.0706,9.9113,9.8976,9.8893,9.8576,9.8576,9.8576,9.8576,9.8758,9.89,9.8958,9.8958,9.8863,9.8681,9.8613,9.8664,9.887,9.9134,10.0087,10.1673,10.2163,10.4028,10.6853,0.0,0.0,10.9679,10.9659,10.9794,11.0024,11.0024,11.0024,11.0024,11.0024,11.0024,11.0024,11.0024,11.0024,11.0024,11.0024,11.0024,11.0024,11.0024,11.0024,11.0024,11.0024,11.0024,11.0024,11.0024,11.0214,11.0404,11.0404,11.1695,11.2948,11.2948,11.4277,11.5415,11.5415,11.5643,11.5795,11.5795,11.6934,11.7807,11.7807,11.9022,11.9933,11.9933,11.9933,11.9933,11.9933,11.9933,11.9933,11.9933,11.9933,11.9933,11.9933,11.9933,12.0807,12.2781,12.4489,12.6843,12.9994,13.0032,13.0032,13.0032,13.0032,13.0032,13.0032,13.0032,13.0032,6.9006,6.9723,7.0244,6.9246,7.0165,7.1586,7.2497,7.4628,7.6624,7.7485,7.8232,7.9018,7.9937,8.061,8.2218,8.5807,8.8163,9.1565,9.7435,9.9151,9.9813,9.9796,10.0054,9.9797,9.8817,9.8878,9.8832,9.8576,9.8576,9.8576,9.8576,9.8664,9.8746,9.8746,9.8746,9.8681,9.8538,9.8576,9.8612,9.8746,9.8746,9.9297,10.0406,10.0979,10.2909,10.579,10.6295,10.7187,10.8332,10.9275,10.9161,10.8561,10.9605,11.0024,11.0024,11.0024,11.0024,11.0024,11.0024,11.0024,11.0024,11.0024,11.0024,11.0024,11.0024,11.0024,11.0024,11.0024,11.0024,11.0024,11.0024,11.0024,11.0024,11.0024,11.0632,11.1201,11.1201,11.2492,11.3707,11.3707,11.4466,11.5074,11.5074,11.5681,11.6137,11.6137,11.682,11.7618,11.8453,11.8567,11.8908,11.982,11.9933,11.9933,11.9933,11.9933,11.9933,11.9933,11.9933,12.111,12.373,12.4565,12.6577,12.9994,13.0032,13.0032,13.0032,13.0032,13.0032,13.0032,13.0032,13.0032,7.0195,0.0,7.255,7.1134,7.1929,7.3432,0.0,7.6012,7.7298,7.8457,7.8719,7.913,8.0423,7.9601,8.0663,8.6534,8.6705,8.8275,9.4556,9.6874,9.8127,9.8501,9.8729,9.8774,9.8576,9.8746,9.8758,9.8557,9.8576,9.8576,9.8576,9.8576,9.8576,9.8576,9.8576,9.8576,9.8576,9.8576,9.8594,9.8666,9.8594,9.8816,9.9337,10.0029,10.1719,10.4156,10.5307,10.6003,10.6498,10.8792,10.8663,10.7293,10.926,11.0024,11.0024,11.0024,11.0024,11.0024,11.0024,11.0024,11.0024,11.0024,11.0024,11.0024,11.0024,11.0024,11.0024,11.0024,11.0024,11.0024,11.0024,11.0024,11.0024,11.0024,11.0024,11.0024,11.0024,11.1049,11.1961,11.1961,11.2986,11.3897,11.3897,11.4239,11.4466,11.4466,11.4808,11.5491,11.6706,11.6858,11.7352,11.8643,11.9136,11.9326,11.9326,11.9326,11.9326,11.9326,11.9706,12.1452,12.4869,12.4983,12.6577,12.9994,13.0032,13.0032,13.0032,13.0032,13.0032,13.0032,13.0032,13.0032,0.0,7.5111,7.6207,7.6072,7.7149,7.8232,7.8345,7.8457,0.0,7.8719,7.8719,7.8756,7.8868,7.8793,7.9915,8.3527,8.5247,8.7864,9.2986,9.5117,9.6762,9.8352,9.8557,9.8576,9.8538,9.8557,9.8576,9.8538,9.8576,9.8576,9.8576,9.8576,9.8576,9.8576,9.8576,9.8576,9.8576,9.8576,9.8681,9.8915,9.8664,9.8816,9.9299,9.8919,9.9742,0.0,10.3536,10.422,10.4349,10.8364,10.8869,10.7293,10.926,11.0024,11.0024,11.0024,11.0024,11.0024,11.0024,11.0024,11.0024,11.0024,11.0024,11.0024,11.0024,11.0024,11.0024,11.0024,11.0024,11.0024,11.0024,11.0024,11.0024,11.0024,11.0024,11.0024,11.0024,11.01,11.0214,11.0214,11.029,11.0366,11.0366,11.1695,11.272,11.272,11.4049,11.5112,11.5226,11.5264,11.5302,11.5415,11.6744,11.758,11.758,11.758,11.758,11.758,11.906,12.1452,12.4869,12.4983,12.6577,12.9994,13.0032,13.0032,13.0032,13.0032,13.0032,13.0032,13.0032,13.0032,7.5846,7.6407,7.6799,7.6626,7.6937,7.7522,7.8532,7.8719,7.8719,7.8719,7.8719,7.8719,7.8719,7.8719,8.014,8.4499,8.5733,8.7826,9.2799,9.4968,9.6239,9.6912,9.7903,9.8576,9.8576,9.8576,9.8576,9.8576,9.8576,9.8576,9.8576,9.8576,9.8576,9.8576,9.8576,9.8576,9.8576,9.8576,9.8631,9.8678,9.8575,9.8763,9.907,9.887,9.9872,10.1801,10.2529,10.2709,0.0,10.5657,10.6267,10.5492,10.7616,10.9075,11.0024,11.0024,11.0024,11.0024,11.0024,11.0024,11.0024,11.0024,11.0024,11.0024,11.0024,11.0024,11.0024,11.0024,11.0024,11.0024,11.0024,11.0024,11.0024,11.0024,11.0024,11.0024,11.0024,11.0024,11.0024,11.0024,11.0024,11.0024,11.0024,11.0556,11.0974,11.0974,11.1505,11.2302,11.3365,11.3517,11.3897,11.496,11.5605,11.5529,11.4466,11.534,11.5947,11.5947,11.7466,11.9895,12.3274,12.4413,12.6577,12.9994,13.0032,13.0032,13.0032,13.0032,13.0032,13.0032,13.0032,13.0032,7.7012,7.7823,7.8607,7.8971,7.889,7.8853,7.9414,7.9526,7.9227,7.8195,7.8382,7.8719,7.8719,7.8719,8.0177,8.4648,8.577,8.7826,9.2799,9.4968,9.6201,9.6762,9.7865,9.8576,9.8576,9.8576,9.8576,9.8576,9.8576,9.8576,9.8576,9.8576,9.8576,9.8576,9.8576,9.8576,9.8576,9.8576,9.8576,9.8576,9.8576,9.8698,9.8958,9.8863,9.9673,10.1211,10.1704,10.1553,10.1143,10.3847,10.4367,10.3727,10.5868,10.7405,10.8468,10.9037,10.9227,10.9303,10.9835,11.0024,11.0024,11.0024,11.0024,11.0024,11.0024,11.0024,11.0024,11.0024,11.0024,11.0024,11.0024,11.0024,11.0024,11.0024,11.0024,11.0024,11.0024,11.0024,11.0024,11.0024,11.0024,11.0024,11.0024,11.0024,11.0024,11.0024,11.0024,11.0442,11.1581,11.1733,11.2188,11.3327,11.3935,11.3593,11.1885,11.3289,11.4277,11.4277,11.5757,11.8415,12.2325,12.3578,12.6046,12.9956,13.0032,13.0032,13.0032,13.0032,13.0032,13.0032,13.0032,13.0032,7.7068,7.9648,8.2245,8.393,8.4065,8.3302,8.1657,8.123,8.0311,7.7058,7.7634,7.8719,7.8719,7.8719,7.984,8.3228,8.5097,8.7789,9.2762,9.493,9.6613,9.8314,9.8538,9.8576,9.8576,9.8538,9.8538,9.8538,9.8538,0.0,9.8576,9.8538,9.8538,9.8576,9.8576,9.8576,9.8576,9.8576,9.8576,9.8576,9.8576,9.8698,9.8943,9.8681,9.8847,9.9394,10.0954,10.0765,0.0,10.3389,10.3784,10.2238,10.4171,10.4937,10.5165,10.6835,10.7481,10.7708,10.9417,10.9986,10.9986,11.0024,11.0024,11.0024,11.0024,11.0024,11.0024,11.0024,11.0024,11.0024,11.0024,11.0024,11.0024,11.0024,11.0024,11.0024,11.0024,11.0024,11.0024,11.0024,11.0024,11.0024,11.0024,11.0024,11.0024,11.0024,11.0024,11.0024,11.0024,11.0024,11.0024,11.0024,11.1505,11.1847,11.0176,11.1543,11.253,11.253,11.4087,11.7238,12.2173,12.2439,12.4831,12.988,12.9994,12.9994,13.0032,13.0032,13.0032,13.0032,13.0032,13.0032,7.8814,7.9848,8.097,8.3668,8.3312,8.2092,8.142,8.0349,7.889,7.6811,7.6774,7.741,7.8532,7.8719,7.984,8.3228,8.4162,8.577,8.9546,9.25,9.4444,9.493,9.7099,9.8576,9.8576,9.8712,9.8816,9.8816,9.8646,9.8576,9.8576,9.8729,9.8763,9.8538,9.8576,9.8576,9.8576,9.8576,9.8576,9.8576,9.8576,9.8613,9.8681,9.8962,9.9163,9.9375,10.0096,10.0084,0.0,10.0654,10.1408,10.1841,10.2613,10.3639,10.4787,10.5466,10.5696,10.5962,10.7633,10.824,10.843,10.9645,11.0024,11.0024,11.0024,11.0024,11.0024,11.0024,11.0024,11.0024,11.0024,11.0024,11.0024,11.0024,11.0024,11.0024,11.0024,11.0024,11.0024,11.0024,11.0024,11.0024,11.0024,11.0024,11.0024,11.0024,11.0024,11.0024,11.0024,11.0024,11.0024,11.0024,11.048,11.0556,11.0062,11.048,11.0746,11.0746,11.234,11.4504,11.7162,11.9478,12.1946,12.4641,12.5894,12.7071,12.8248,12.8248,12.8893,13.0032,13.0032,13.0032,7.7751,7.8874,8.0314,8.2866,8.3039,8.2022,7.9875,7.9571,7.889,7.5974,7.5951,7.6886,7.8419,7.928,8.061,8.334,8.4873,8.663,8.9285,9.2463,9.4519,9.4519,9.6912,9.8576,9.8576,9.8678,9.8832,9.8943,9.8885,9.8878,9.8878,9.8915,9.8855,9.8712,9.8594,9.8576,9.8576,9.8576,9.8576,9.8576,9.8576,9.8576,9.8557,9.8976,9.9255,9.9337,9.9625,9.9661,0.0,9.9651,10.0139,10.0841,10.1109,10.183,10.2822,10.3644,10.395,10.4216,10.5886,10.6949,10.7671,10.8696,10.8582,10.8012,10.8012,10.8012,10.8012,10.8012,10.8468,10.8999,10.8999,10.9531,11.0024,11.0024,11.0024,11.0024,11.0024,11.0024,11.0024,11.0024,11.0024,11.0024,11.0024,11.0024,11.0024,11.0024,11.0024,11.0024,11.0024,11.0024,11.0024,11.0024,11.0024,11.0024,11.0024,11.0024,11.0024,11.0024,11.1619,11.3593,11.5909,11.8529,12.1034,12.3426,12.4451,12.5476,12.6501,12.6501,12.7033,12.8058,12.8703,12.9045,7.5398,7.7587,8.0115,8.1806,8.3131,8.2781,7.7939,7.9113,7.9908,7.5091,7.5301,7.6886,7.8419,8.0118,8.1854,8.3489,8.6418,8.9036,9.0705,9.3734,9.579,9.579,9.7398,9.8576,9.8576,9.8576,9.8698,9.8929,9.9163,9.9337,9.9382,9.9129,9.899,9.8958,9.8712,9.8576,9.8576,9.8576,9.8576,9.8576,9.8576,9.8557,9.8575,9.8878,9.9119,9.9364,9.9485,9.9545,0.0,9.9803,9.9754,9.9541,9.9764,9.9887,10.0077,10.1634,10.2203,10.2469,10.414,10.5734,10.7063,10.7215,10.6228,10.4975,10.4975,10.4975,10.4975,10.4975,10.6076,10.7291,10.7443,10.8658,10.9835,10.9986,11.0024,11.0024,11.0024,11.0024,11.0024,11.0024,11.0024,11.0024,11.0024,11.0024,11.0024,11.0024,11.0024,11.0024,11.0024,11.0024,11.0024,11.0024,11.0024,11.0024,11.0024,11.0024,11.0024,11.0024,11.1467,11.3707,11.682,11.8605,12.0996,12.4224,12.4451,12.4603,12.4755,12.4755,12.4831,12.5021,12.6577,12.7299,7.8627,7.9499,8.0364,8.1859,8.3395,8.3515,7.9494,8.0128,8.0481,7.6645,7.6138,7.6886,7.8419,8.0287,8.2033,8.3553,8.5563,8.7465,8.8961,9.1977,9.4033,9.4033,9.6688,9.8576,9.8576,9.8746,9.887,9.8958,9.9163,9.947,9.979,9.9555,9.9242,9.8934,9.8885,9.8758,9.8538,9.8576,9.8576,9.8576,9.8576,9.8664,9.884,9.9131,9.9335,9.9491,9.975,9.9846,9.9806,9.9661,9.9591,9.9532,9.9595,9.9603,9.9689,10.0225,10.0457,10.0685,10.2393,10.3229,10.376,10.5089,10.5241,10.4975,10.4975,10.4975,10.4975,10.4975,10.5203,10.581,10.7139,10.7784,10.8354,10.9721,11.0024,11.0024,11.0024,11.0024,11.0024,11.0024,11.0024,11.0024,11.0024,11.0024,11.0024,11.0024,11.0024,11.0024,11.0024,11.0024,11.0024,11.0024,11.0024,11.0024,11.0024,11.0024,11.0024,11.0024,11.0366,11.1467,11.3517,11.5226,11.7048,11.8984,12.0351,12.168,12.3009,12.3009,12.3692,12.4983,12.5362,12.5514,7.8627,7.9462,8.0448,8.195,8.3549,8.4017,8.1216,8.1717,8.1782,7.8377,7.7591,7.7746,7.8569,8.0879,8.2923,8.3671,8.5886,8.7798,8.855,9.078,9.2687,9.3397,9.5753,9.7678,9.8464,9.8806,9.899,9.9119,9.9317,9.9517,9.9712,9.9712,9.957,9.9243,9.9174,9.9003,9.8763,9.8763,9.8681,9.8538,9.8698,9.8801,9.8972,9.929,9.9455,9.9536,9.9804,9.9847,9.9714,9.9712,9.9651,9.9536,9.9661,9.9712,9.9714,9.9848,9.9926,10.0039,10.0913,10.1748,10.2469,10.2507,10.2545,10.2545,10.2545,10.2545,10.2545,10.2545,10.3115,10.395,10.4861,10.5658,10.6494,10.7405,10.7595,10.7822,10.8658,10.9455,11.0024,11.0024,11.0024,11.0024,11.0024,11.0024,11.0024,11.0024,11.0024,11.0024,11.0024,11.0024,11.0024,11.0024,11.0024,11.0024,11.0024,11.0024,11.0366,11.1201,11.1999,11.3176,11.4808,11.6517,11.7807,11.8605,11.9478,12.0351,12.1262,12.1262,12.1718,12.2591,12.3388,12.3768,7.7865,7.8968,8.0449,8.2044,8.3622,8.4412,8.297,8.3653,8.3591,8.0279,7.9404,7.9121,7.8859,8.154,8.3883,8.4141,8.6958,8.9124,8.9077,9.0518,9.1921,9.2986,9.4818,9.6575,9.7978,9.8575,9.8976,9.9266,9.9164,9.9237,9.9595,9.9803,9.9806,9.9599,9.9453,9.9259,9.9017,9.9017,9.89,9.8678,9.89,9.9005,9.9044,9.9371,9.9541,9.9603,9.9807,0.0,9.9603,9.9807,9.9764,9.9606,9.9846,9.9926,9.9926,9.9926,9.9926,9.9926,9.9926,10.0837,10.1786,10.0343,9.9926,9.9926,9.9926,9.9926,9.9926,9.9926,10.0913,10.209,10.2355,10.3456,10.4595,10.4899,10.4975,10.5355,10.6759,10.8164,10.9227,10.9531,10.9835,11.0024,11.0024,11.0024,11.0024,11.0024,11.0024,11.0024,11.0024,10.9759,10.9683,10.9986,11.0024,11.0024,11.0024,11.029,11.1049,11.2454,11.4125,11.5757,11.7352,11.8756,11.963,11.9933,11.9933,11.9933,11.9933,11.9933,11.9933,11.9971,12.1376,12.2022,7.9028,7.975,8.0449,8.2044,8.3676,8.4847,8.4495,8.567,8.5805,8.2239,8.1365,8.0817,7.9314,8.1734,8.4351,8.5611,8.8729,9.0957,9.0869,9.2201,9.2762,9.1622,9.4145,9.6127,9.6314,9.7734,9.8712,9.8962,9.8068,9.8171,9.9772,9.9887,9.9887,9.9848,9.9603,9.9422,9.9259,9.9259,9.9239,9.9245,9.9249,9.9344,9.9436,9.9512,9.9654,9.9848,9.9887,9.9887,9.9848,9.9888,9.9887,9.9886,9.9888,9.9926,9.9926,9.9926,9.9926,9.9926,9.9926,10.0077,10.0191,10.0001,9.9926,9.9926,9.9926,9.9926,9.9926,9.9926,10.0077,10.0609,10.2052,10.2621,10.3153,10.4633,10.4975,10.5013,10.5241,10.5469,10.6076,10.7557,10.8999,11.0024,11.0024,11.0024,11.0024,11.0024,11.0024,11.0024,11.0024,10.8734,10.8392,10.9873,11.0024,11.0024,11.0024,11.1353,11.2302,11.253,11.4125,11.5757,11.7352,11.7618,11.8453,11.9933,11.9933,11.9933,11.9933,11.9933,11.9933,11.9933,12.0161,12.0275,7.7839,7.9787,8.1778,8.3448,8.5119,8.6599,8.7501,8.8153,8.7613,8.4181,8.407,8.3794,8.1141,8.3236,8.5596,8.6226,8.8293,8.9799,8.9768,9.0331,9.0855,9.1136,9.2425,9.3622,9.4519,9.54,9.6426,9.7656,9.7262,9.7327,9.8109,9.9267,9.9926,9.9926,9.9804,9.9704,9.9663,9.9512,9.9409,9.9318,9.9409,9.9468,9.9532,9.9664,9.9804,9.9926,0.0,9.9926,9.9926,9.9926,9.9926,9.9926,9.9926,9.9926,9.9926,9.9926,9.9926,9.9926,9.9926,9.9926,9.9926,9.9926,9.9926,9.9926,9.9926,9.9926,9.9926,9.9926,9.9926,10.0077,10.0837,10.1027,10.1216,10.1938,10.2128,10.2393,10.3342,10.3532,10.4064,10.5734,10.6683,10.7177,10.7177,10.7177,10.7177,10.7177,10.7177,10.7177,10.7177,10.6532,10.638,10.7101,10.7177,10.7557,10.8506,11.0176,11.1961,11.3859,11.5491,11.7124,11.8756,11.8832,11.9174,11.9933,11.9933,11.9933,11.9933,11.9933,11.9933,11.9933,11.9933,11.9933,7.6585,7.8782,8.1207,8.4208,8.5916,8.7397,8.9523,8.9853,8.8795,8.5459,8.5642,8.5287,8.183,8.3725,8.5972,8.6436,8.8076,8.9298,8.9322,8.9294,8.9584,9.0444,9.0892,9.1638,9.2843,9.3465,9.447,9.6152,9.6251,9.6652,9.7535,9.9064,9.9926,9.9926,9.9926,9.9926,9.9926,9.9714,9.9565,9.9484,9.957,9.961,9.961,9.9807,9.9926,9.9926,9.9926,9.9926,9.9926,9.9926,9.9926,9.9926,9.9926,9.9926,9.9926,9.9926,9.9926,9.9926,9.9926,9.9926,9.9926,9.9926,9.9926,9.9926,9.9926,9.9926,9.9926,9.9926,9.9926,9.9926,9.9926,9.9926,9.9926,9.9926,9.9926,10.0267,10.152,10.1786,10.2317,10.3988,10.433,10.4443,10.4899,10.4975,10.4975,10.4975,10.4975,10.4823,10.4368,10.433,10.4481,10.4937,10.5355,10.6114,10.7367,10.9455,11.1733,11.4277,11.5947,11.739,11.8643,11.9098,11.9288,11.9288,11.9706,11.9933,11.9933,11.9933,11.9933,11.9933,11.9933,11.9933,7.6051,7.6112,7.6778,8.3296,8.5005,8.5954,8.9257,8.9978,8.9029,8.5612,8.4905,8.3751,8.0104,8.2007,8.4642,8.6247,8.9036,9.1104,9.1222,9.1105,9.0481,8.8965,9.0182,9.1232,9.1448,9.2717,9.3883,9.4719,9.4786,9.6233,9.9582,9.985,9.9926,9.9926,9.9926,9.9926,9.9926,9.9888,9.9887,9.9887,9.9887,9.9887,9.9887,9.9925,9.9926,9.9926,9.9926,9.9926,9.9926,9.9926,9.9926,9.9926,9.9926,9.9926,9.9926,9.9926,9.9926,9.9926,9.9926,9.9926,9.9926,9.9926,9.9926,9.9926,9.9926,9.9926,9.9926,9.9926,9.9926,9.9926,9.9926,9.9926,9.9926,9.9926,9.9926,9.9926,10.0039,10.0039,10.0533,10.2241,10.2583,10.3077,10.4709,10.4975,10.4975,10.4975,10.4975,10.4368,10.2773,10.2583,10.3191,10.4785,10.6418,10.7405,10.7481,11.0518,11.2492,11.2682,11.4277,11.5226,11.534,11.6744,11.7542,11.7542,11.9136,11.9933,11.9933,11.9933,11.9933,11.9933,11.9933,11.9933,7.3887,7.5842,7.7297,8.072,8.3289,8.4967,8.5119,8.5992,8.6106,8.379,8.4167,8.4157,8.1745,8.385,8.6165,8.6771,8.8581,8.9943,8.9976,8.9939,8.9683,8.9091,8.9458,8.9834,8.9993,9.0389,9.0863,9.1392,9.2439,9.4052,9.64,9.7719,9.89,9.9888,9.9926,9.9926,9.9926,9.9926,9.9926,9.9926,9.9926,9.9926,9.9926,9.9926,9.9926,9.9926,9.9926,9.9926,9.9926,9.9926,9.9926,9.9926,9.9926,9.9926,9.9926,9.9926,9.9926,9.9926,9.9926,9.9926,9.9926,9.9926,9.9926,9.9926,9.9926,9.9926,9.9926,9.9926,9.9926,9.9926,9.9926,9.9926,9.9926,9.9926,9.9926,9.9926,9.9926,9.9926,10.0077,10.0685,10.0799,10.0989,10.1634,10.171,10.171,10.171,10.171,10.152,10.0875,10.0799,10.1482,10.3153,10.3874,10.5127,10.7291,10.9607,11.1391,11.2454,11.4125,11.5074,11.5074,11.5605,11.5909,11.5909,11.7504,11.8301,11.8339,11.9402,11.9933,11.9933,11.9933,11.9933,7.0895,7.3178,7.516,7.749,8.0232,8.2343,8.2385,8.3297,8.379,8.2651,8.3297,8.3562,8.1809,8.3672,8.5641,8.6214,8.7494,8.8678,8.9277,8.9269,8.922,8.922,8.9109,8.9125,8.9338,8.9278,8.961,9.0541,9.165,9.2969,9.4571,9.6499,9.8026,9.8968,9.9621,9.9926,9.9926,9.9926,9.9926,9.9926,9.9926,9.9926,9.9926,9.9926,9.9926,9.9926,9.9926,9.9926,9.9926,9.9926,9.9926,9.9926,9.9926,9.9926,9.9926,9.9926,9.9926,9.9926,9.9926,9.9926,9.9926,9.9926,9.9926,9.9926,9.9926,9.9926,9.9926,9.9926,9.9926,9.9926,9.9926,9.9926,9.9926,9.9926,9.9926,9.9926,9.9926,9.9926,9.9926,9.9926,9.9926,9.9926,9.9926,9.9926,9.9926,9.9926,9.9926,9.9926,9.9926,9.9846,10.0212,10.129,10.2387,10.3943,10.6182,10.8459,11.0242,11.1346,11.2485,11.313,11.313,11.3761,11.4113,11.4113,11.5756,11.663,11.663,11.7769,11.8301,11.8339,11.8832,11.9098,6.7207,6.7961,7.0037,7.3674,7.5835,7.7937,8.1283,8.2158,8.2271,8.2272,8.2309,8.1813,8.0014,8.1089,8.2758,8.4405,8.5915,8.7483,8.9277,8.9325,8.917,8.9245,8.9131,8.9221,8.9572,8.9594,9.0389,9.2294,9.2446,9.3085,9.4499,9.6385,9.7337,9.7121,9.8892,9.985,9.985,9.9888,9.9926,9.9926,9.9926,9.9926,9.9926,9.9926,9.9926,9.9926,9.9926,9.9926,9.9926,9.9926,9.9926,9.9926,9.9926,9.9926,9.9926,9.9926,9.9926,9.9926,9.9926,9.9926,9.9926,9.9926,9.9926,9.9926,9.9926,9.9926,9.9926,9.9926,9.9926,9.9926,9.9926,9.9926,9.9926,9.9926,9.9926,9.9926,9.9926,9.9926,9.9926,9.9926,9.9926,9.9926,9.9926,9.9926,9.9926,9.9926,9.9926,9.9926,9.9888,9.9666,9.9517,9.9431,10.2231,10.4159,10.4235,10.7261,10.919,10.9227,10.9227,10.9227,10.9227,11.1077,11.2076,11.2076,11.3996,11.496,11.496,11.5036,11.5074,11.5112,11.663,11.7314,6.6051,6.7051,6.7743,6.8681,7.2101,7.4837,7.3541,7.6055,7.8682,7.8854,7.988,8.0563,8.0065,8.1277,8.253,8.2987,8.4419,8.6086,8.7807,8.7987,8.8396,8.9649,8.9605,8.959,8.9854,8.9747,8.9829,9.0351,9.0579,9.1339,9.275,9.3536,9.4458,9.5592,9.7343,9.8217,9.8217,9.9356,9.9926,9.9926,9.9926,9.9926,9.9926,9.9926,9.9926,9.9926,9.9926,9.9926,9.9926,9.9926,9.9926,9.9926,9.9926,9.9926,9.9926,9.9926,9.9926,9.9926,9.9926,9.9926,9.9926,9.9926,9.9926,9.9926,9.9926,9.9926,9.9926,9.9926,9.9926,9.9926,9.9926,9.9926,9.9926,9.9926,9.9926,9.9926,9.9926,9.9926,9.9926,9.9926,9.9926,9.9926,9.9926,9.9926,9.9926,9.9926,9.9926,9.9847,9.9658,9.9754,10.0203,10.1197,10.1931,10.3337,10.5796,10.6855,10.7952,10.9152,10.9227,10.9227,10.9227,10.9761,11.0054,11.0054,11.1683,11.2548,11.2548,11.3956,11.4641,11.4679,11.5372,11.5719,6.4341,6.5404,6.567,6.5683,6.7983,7.0327,7.0588,7.2435,7.4519,7.603,7.7789,7.9044,7.9044,8.0373,8.1664,8.2309,8.3259,8.4474,8.6182,8.7017,8.7852,8.884,8.8829,8.8786,8.8915,8.9475,8.976,8.976,8.9936,9.0312,9.1039,9.2018,9.2938,9.3799,9.5596,9.6547,9.6547,9.8141,9.8938,9.8938,9.9584,9.9926,9.9926,9.9926,9.9926,9.9926,9.9926,9.9926,9.9926,9.9926,9.9926,9.9926,9.9926,9.9926,9.9926,9.9926,9.9926,9.9926,9.9926,9.9926,9.9926,9.9926,9.9926,9.9926,9.9926,9.9926,9.9926,9.9926,9.9926,9.9926,9.9926,9.9926,9.9926,9.9926,9.9926,9.9926,9.9926,9.9926,9.9926,9.9926,9.9926,9.9926,9.9926,9.9926,9.9926,9.9926,9.9807,9.9707,9.9541,9.9496,9.9853,10.0694,10.0511,10.1442,10.4042,10.4946,10.6077,10.7758,10.7871,10.8172,10.8813,10.8916,10.8994,10.8994,11.0043,11.06,11.06,11.1734,11.2282,11.2328,11.335,11.3409,6.2085,6.3009,6.3324,6.3611,6.3942,6.5381,0.0,7.0086,7.028,7.3211,7.5346,7.6728,7.6956,7.8361,8.0032,8.1626,8.2044,8.2765,8.4436,8.5954,8.6903,8.6903,8.7093,8.7245,8.7435,8.884,8.9789,8.994,8.9978,8.9895,8.9636,9.1297,9.2135,9.1874,9.3766,9.4762,9.4723,9.6433,9.7382,9.761,9.8976,9.9736,9.9926,9.9926,9.9926,9.9926,9.9926,9.9926,9.9926,9.9926,9.9926,9.9926,9.9926,9.9926,9.9926,9.9926,9.9926,9.9926,9.9926,9.9926,9.9926,9.9926,9.9926,9.9926,9.9926,9.9926,9.9926,9.9926,9.9926,9.9926,9.9926,9.9926,9.9926,9.9926,9.9926,9.9926,9.9926,9.9926,9.9926,9.9926,9.9926,9.9926,9.9926,9.9926,9.9887,9.9846,9.9648,9.9502,9.9485,9.9163,9.8948,9.89,9.8712,9.9156,10.0539,10.2184,10.3941,10.581,10.5923,10.6633,10.8203,10.8498,10.8627,10.8627,10.8942,10.9128,10.9128,10.9163,10.9185,10.9223,11.1032,11.0865,0.0,0.0,0.0,0.0,0.0,0.0,0.0,6.5697,6.7673,6.8528,7.0085,7.1736,7.3235,7.4868,7.6577,7.8247,7.9652,8.1095,8.2689,8.3183,8.341,8.341,8.4625,8.5992,8.7321,8.7777,8.8456,8.9589,8.9895,8.9895,8.9636,9.0158,9.035,9.0125,9.2018,9.2934,9.2697,9.4605,9.6243,9.7572,9.7875,9.8673,9.9926,9.9926,9.9926,9.9926,9.9926,9.9926,9.9926,9.9926,9.9926,9.9926,9.9926,9.9926,9.9926,9.9926,9.9926,9.9926,9.9926,9.9926,9.9926,9.9926,9.9926,9.9926,9.9926,9.9926,9.9926,9.9926,9.9926,9.9926,9.9926,9.9926,9.9926,9.9926,9.9926,9.9926,9.9926,9.9926,9.9926,9.9926,9.9926,9.9926,9.9926,9.9926,9.9798,9.9498,9.9415,9.9281,9.9081,9.9163,9.9082,9.8681,9.8774,9.8903,9.9006,10.0464,10.267,10.5736,10.5923,10.6633,10.8203,10.8343,10.8366,10.8366,10.8426,10.8482,10.8482,10.8697,10.8775,10.879,10.9476,10.9427,0.0,0.0,0.0,0.0,0.0,0.0,0.0,0.0,0.0,0.0,0.0,6.8711,6.9725,0.0,7.4254,7.6007,7.7716,7.9386,8.1019,8.193,8.212,8.136,8.2689,8.4018,8.4853,8.5726,8.6863,8.8441,8.8646,8.9065,8.9769,8.9938,8.9895,8.9594,9.0689,9.1146,9.0883,9.2817,9.4231,9.5066,9.5778,9.6614,9.7496,9.7334,9.7829,9.8749,9.8749,9.9204,9.9926,9.9926,9.9926,9.9774,9.8141,9.7496,9.7496,9.7496,9.7496,9.7496,9.7496,9.7496,9.761,9.8483,9.8749,9.89,9.9698,9.9356,9.89,9.9698,9.9356,9.8938,9.9736,9.9926,9.9926,9.9926,9.9926,9.9926,9.9926,9.9926,9.9926,9.9926,9.9926,9.9887,9.9757,9.8961,9.8316,9.8116,9.7253,9.6567,9.6426,9.6412,9.5705,9.3805,9.3696,9.3746,9.362,9.508,9.749,10.0959,10.281,10.4536,10.6176,10.6109,10.6024,10.6024,10.6736,10.7119,10.7082,10.8013,10.8481,10.8444,10.8022,10.7702,0.0,0.0,0.0,0.0,0.0,0.0,0.0,0.0,0.0,0.0,0.0,0.0,0.0,0.0,0.0,7.3726,7.6007,7.8057,7.9424,8.0677,8.1019,7.9766,8.1019,8.2082,8.2385,8.3676,8.5157,8.6865,8.6979,8.7587,8.8953,8.9029,8.906,8.9138,8.9361,8.9552,8.9632,9.1222,9.2181,9.256,0.0,0.0,9.5066,9.4851,9.5615,9.7078,9.7078,9.7799,9.8976,9.8976,9.8976,9.8711,9.6091,9.5066,9.5066,9.5066,9.5066,9.5066,9.5066,9.5066,9.5294,9.666,9.7078,9.7344,9.8597,9.8103,0.0,9.8597,9.8065,9.7458,9.9052,9.947,9.9546,9.985,9.9926,9.9926,9.9926,9.9926,9.9926,9.9926,9.9887,9.9762,9.9545,9.7713,9.5999,9.5316,9.4395,9.3591,9.2966,9.3263,9.25,8.9845,8.9563,8.9563,8.9563,8.9972,9.2005,9.6158,9.844,10.0394,10.2047,10.1899,10.181,10.181,10.3008,10.4228,10.5538,10.6832,10.747,10.7376,10.3411,10.2391,0.0,0.0,0.0,0.0,0.0,0.0,0.0,0.0,0.0,0.0,0.0,0.0,0.0,0.0,0.0,0.0,7.4406,7.7602,7.783,7.7981,7.8057,7.7867,7.931,8.0905,8.2272,8.2575,8.341,8.5119,8.5233,8.5309,8.5499,8.5499,0.0,0.0,0.0,8.8337,8.9594,9.0045,9.1042,9.2522,9.2674,9.3585,9.5066,9.5027,9.5141,9.5332,9.5332,9.5446,9.5597,9.5597,9.5597,9.5559,9.518,9.5066,9.5066,9.5066,9.5066,9.5066,9.5066,0.0,0.0,9.5256,9.5332,9.537,9.5522,9.5484,9.537,9.5559,9.5484,9.5749,9.742,9.7837,9.8217,9.9584,9.9926,9.9926,9.9926,9.9926,9.9926,9.9926,9.9714,9.9545,9.9532,9.6557,9.3134,9.0039,9.1836,9.2513,8.9594,9.1712,9.336,9.2986,0.0,0.0,9.2949,8.9215,8.9588,9.6022,9.3972,9.3173,9.4658,9.4701,9.4666,9.4666,9.5051,9.8133,10.4023,10.4464,10.4662,10.4322,9.0732,8.8255,0.0,0.0,0.0,0.0,0.0,0.0,0.0,0.0,0.0,0.0,0.0,0.0,0.0,0.0,0.0,0.0,7.0969,7.3032,7.3032,7.4789,7.6083,7.6083,7.7564,7.8893,7.9538,8.0326,8.1576,8.3335,8.3401,8.3815,8.4891,8.4929,8.5186,8.5717,8.5905,8.6249,8.6778,8.7956,8.8878,8.9599,9.042,9.1295,9.2105,9.1977,9.2511,9.3585,9.3585,9.4155,9.5066,9.5066,9.5066,0.0,0.0,0.0,0.0,0.0,9.2105,9.2105,9.2105,9.2105,9.2256,9.3282,9.3585,9.3775,9.4762,9.4383,9.3775,9.48,9.4345,9.4003,9.5673,9.6091,9.6281,9.6926,9.6995,9.6863,9.6863,9.6863,9.6811,9.6682,9.6682,0.0,9.6302,9.4067,9.1785,9.0329,9.0406,9.0182,8.8816,8.9808,8.992,8.8051,8.7826,8.7826,8.7826,8.6819,0.0,0.0,0.0,9.1367,9.1141,9.2083,0.0,0.0,0.0,0.0,0.0,0.0,0.0,0.0,8.4571,8.4106,0.0,0.0,0.0,0.0,0.0,0.0,0.0,0.0,0.0,0.0,0.0,0.0,0.0,0.0,0.0,0.0,6.7175,6.8659,6.7877,7.1134,7.3423,7.3008,7.5248,7.6691,7.6235,7.7461,7.8847,8.0178,8.0584,8.1359,8.2705,8.3161,8.3555,8.3938,8.4093,8.4398,8.4757,8.6104,8.6789,8.6789,8.7832,8.8441,8.8612,8.8401,8.9354,9.1155,9.1155,9.2105,9.3661,9.3661,9.3661,9.332,8.9941,8.8612,8.8612,8.8612,8.8612,8.8688,8.9143,8.9599,9.0206,9.1421,9.1839,9.2067,9.3282,9.2788,9.2067,9.332,9.2788,9.2219,9.3927,9.4345,9.4458,9.4952,9.4903,9.4759,9.4759,9.4759,9.4693,9.4446,9.3782,9.3114,9.2649,9.1468,9.0242,8.9302,8.8836,0.0,8.7432,8.8068,8.7731,8.5359,8.5134,8.5134,8.5134,8.4504,8.554,8.8795,8.8443,8.8439,8.929,8.8667,8.907,9.0662,8.7461,8.5626,0.0,0.0,0.0,0.0,0.0,0.0,0.0,0.0,0.0,0.0,0.0,0.0,0.0,0.0,0.0,0.0,0.0,0.0,0.0,0.0,0.0,0.0,0.0,0.0,6.3018,6.6855,6.9377,6.7844,7.2059,7.4451,7.2818,7.3972,7.4804,7.4883,7.6294,7.7191,7.7222,7.8652,8.0241,8.189,8.2182,8.3115,8.4715,8.4922,8.5005,8.5005,8.5081,8.5119,8.5119,8.5119,8.603,8.7625,8.7625,8.8612,9.0168,9.0168,9.0168,8.9827,8.641,8.5119,8.5119,8.5119,8.5119,8.5347,8.6979,8.8612,9.0016,9.0054,9.0092,9.0092,9.013,9.013,9.0092,9.013,9.013,9.0472,9.2143,9.2598,9.3016,9.4648,9.5066,9.5028,9.5028,9.5028,9.4947,9.4697,9.2021,8.9653,8.9256,8.9133,8.7961,8.4526,8.6667,0.0,8.4349,8.6721,8.8591,8.8516,8.8479,8.8479,8.8479,8.2735,8.1985,8.8619,8.2912,8.2223,8.8794,8.2665,7.9908,8.1614,8.3471,8.3638,8.198,0.0,0.0,0.0,0.0,0.0,0.0,0.0,0.0,0.0,0.0,0.0,0.0,0.0,0.0,0.0,0.0,0.0,0.0,0.0,0.0,0.0,0.0,0.0,0.0,6.2952,6.4659,6.4062,6.7482,6.9239,6.7655,7.0724,7.2956,7.319,7.4511,7.5331,7.5425,7.5836,7.6874,7.8569,7.8713,7.9584,8.1397,8.2569,8.3168,8.3297,8.4398,8.4929,8.4929,8.4929,8.5271,8.5878,8.6979,8.7814,8.8346,8.8346,8.8346,8.8194,8.7055,8.5954,8.4929,8.4929,8.4929,8.5005,8.5612,8.6182,8.6638,8.6638,8.6638,8.6638,8.6638,8.6638,8.6638,8.6638,8.6638,8.6789,8.7359,8.8346,8.9333,8.9903,9.0767,9.1422,9.1422,9.1422,9.1396,9.1112,8.763,8.4251,8.2821,8.5249,8.5809,8.1266,8.3315,8.5022,8.3901,8.4723,8.5396,8.5396,8.5396,8.5396,8.5396,8.3397,8.2611,8.3794,8.1726,8.0977,8.2135,8.1039,8.0685,8.123,8.3124,7.9497,7.0108,0.0,0.0,0.0,0.0,0.0,0.0,0.0,0.0,0.0,0.0,0.0,0.0,0.0,0.0,0.0,0.0,0.0,0.0,0.0,0.0,0.0,0.0,0.0,0.0,0.0,0.0,6.1373,6.3812,0.0,6.3282,6.6249,6.8452,6.8717,7.0565,7.1986,7.2725,7.3191,7.4181,7.5872,7.6036,7.6656,7.7808,7.9063,8.0018,8.0715,8.1778,8.2651,8.3221,8.379,8.4398,8.5043,8.6751,8.7814,8.8118,8.5157,8.36,8.2993,8.2385,8.1095,7.969,8.0297,8.0525,8.0677,8.1892,8.2309,8.2423,8.3031,8.2803,8.2309,8.2309,8.1892,8.1664,8.2879,8.3221,8.3486,8.4625,8.5764,8.6562,8.6562,8.7274,8.7931,8.7931,8.7058,8.6509,8.75,8.527,8.2205,7.9086,8.1073,8.1992,7.8614,7.9815,8.1769,8.3564,8.3788,8.3788,8.3788,8.3788,8.3788,8.3788,8.3228,8.2442,8.1305,8.0685,7.9863,7.8756,7.9227,7.8965,7.7716,7.8323,7.3899,0.0,0.0,0.0,0.0,0.0,0.0,0.0,0.0,0.0,0.0,0.0,0.0,0.0,0.0,0.0,0.0,0.0,0.0,0.0,0.0,0.0,0.0,0.0,0.0,0.0,0.0,0.0,5.9689,6.0999,0.0,0.0,0.0,0.0,6.1769,6.457,6.7055,6.8814,7.0193,7.1712,7.3502,7.39,7.4167,7.4339,7.4798,7.5855,7.7564,7.7488,7.8323,7.9994,8.1398,8.2917,8.4549,8.6258,8.789,8.8764,8.0829,7.6577,7.4868,7.316,7.1489,7.016,7.1793,7.2362,7.2856,7.6273,7.7412,7.7678,7.9196,7.8627,7.726,7.6994,7.5817,0.0,0.0,7.9462,8.0221,8.3486,8.4398,8.4511,8.4663,8.4777,8.4853,8.4929,8.2499,8.1095,0.0,8.417,8.2533,7.7228,0.0,7.6323,7.593,7.6007,7.7859,8.2667,8.3415,8.3527,8.3559,8.3559,8.3559,8.3553,8.2003,8.1031,8.1,7.9459,7.8487,7.8457,7.6826,7.4395,7.1165,6.9394,0.0,0.0,0.0,0.0,0.0,0.0,0.0,0.0,0.0,0.0,0.0,0.0,0.0,0.0,0.0,0.0,0.0,0.0,0.0,0.0,0.0,0.0,0.0,0.0,0.0,0.0,5.4728,5.5051,5.738,5.7043,5.5997,0.0,0.0,0.0,0.0,0.0,0.0,6.1998,6.2268,6.3766,6.6732,6.8115,7.0039,7.2692,7.4042,7.5684,7.7526,7.6273,7.6577,7.8171,7.7298,7.7146,7.764,7.9348,8.0335,8.0563,7.8437,7.6577,7.4868,7.316,7.1489,7.0047,7.0464,7.0616,7.111,7.4489,7.5665,7.5552,7.4716,7.4147,7.3084,6.9287,0.0,0.0,0.0,0.0,7.1451,7.483,7.6615,7.8209,8.0715,8.2234,8.341,8.4663,8.4284,8.174,0.0,7.3805,7.1793,6.5523,0.0,0.0,0.0,6.9773,7.3671,7.6078,7.8517,8.0095,8.028,8.0306,8.0328,8.0422,7.8999,7.7976,7.7786,7.6352,7.541,7.5143,7.1271,6.8774,6.7895,0.0,0.0,0.0,0.0,0.0,0.0,0.0,0.0,0.0,0.0,0.0,0.0,0.0,0.0,0.0,0.0,0.0,0.0,0.0,0.0,0.0,0.0,0.0,0.0,0.0,0.0,0.0,5.1296,5.2334,5.5257,5.4173,5.261,0.0,0.0,0.0,0.0,0.0,0.0,0.0,0.0,0.0,6.2101,6.3129,6.4623,6.666,6.8448,7.0642,7.3122,7.2932,7.4109,7.6463,7.6235,7.6159,7.6235,7.7943,7.6577,7.3084,7.2282,7.0992,6.9477,0.0,0.0,0.0,0.0,6.5148,6.484,6.754,6.849,6.8338,6.7389,0.0,0.0,0.0,0.0,0.0,0.0,0.0,0.0,0.0,0.0,7.4602,7.726,7.912,8.0335,8.0563,7.7716,7.3501,0.0,6.6744,6.4845,5.8885,0.0,0.0,0.0,0.0,6.8612,7.2372,7.5012,7.6678,7.6893,7.6889,7.6958,7.7155,7.6369,7.5759,7.5491,7.4726,7.3184,7.0729,6.6642,6.2766,0.0,0.0,0.0,0.0,0.0,0.0,0.0,0.0,0.0,0.0,0.0,0.0,0.0,0.0,0.0,0.0,0.0,0.0,0.0,0.0,0.0,0.0,0.0,0.0,0.0,0.0,0.0,0.0,0.0,5.1266,5.3231,0.0,0.0,0.0,0.0,0.0,0.0,0.0,0.0,0.0,0.0,0.0,0.0,0.0,5.846,5.9026,6.0741,6.3213,6.6516,6.7731,7.0123,7.3426,7.4678,7.5476,7.5931,7.6728,0.0,6.6971,6.4895,0.0,0.0,0.0,0.0,0.0,0.0,0.0,0.0,0.0,0.0,0.0,0.0,0.0,0.0,0.0,0.0,0.0,0.0,0.0,0.0,0.0,0.0,7.111,7.2173,7.4185,7.5134,0.0,6.6554,6.1656,6.0783,6.0973,0.0,0.0,0.0,0.0,0.0,0.0,0.0,6.9789,7.2484,7.3934,7.4088,7.4102,7.4217,7.4491,7.4315,7.4093,7.384,7.302,7.0464,6.5777,6.2631,0.0,0.0,0.0,0.0,0.0,0.0,0.0,0.0,0.0,0.0,0.0,0.0,0.0,0.0,0.0,0.0,0.0,0.0,0.0,0.0,0.0,0.0,0.0,0.0,0.0,0.0,0.0,0.0,0.0,0.0,0.0,0.0,0.0,0.0,0.0,0.0,0.0,0.0,0.0,0.0,0.0,0.0,0.0,0.0,0.0,0.0,0.0,0.0,0.0,0.0,6.0251,6.1466,6.4731,6.363,6.458,6.6895,6.3015,6.2827,6.5111,6.1895,0.0,0.0,0.0,0.0,0.0,0.0,0.0,0.0,0.0,0.0,0.0,0.0,0.0,0.0,0.0,0.0,0.0,0.0,0.0,0.0,0.0,0.0,0.0,0.0,6.2909,6.4769,5.6189,0.0,0.0,0.0,0.0,0.0,0.0,0.0,0.0,0.0,0.0,0.0,6.4976,7.0444,7.4136,7.4349,7.4467,7.4626,7.4931,7.3643,7.2789,7.2621,6.7565,6.3429,0.0,0.0,0.0,0.0,0.0,0.0,0.0,0.0,0.0,0.0,0.0,0.0,0.0,0.0,0.0,0.0,0.0,0.0,0.0,0.0,0.0,0.0,0.0,0.0,0.0,0.0,0.0,0.0,0.0,0.0,0.0,0.0,0.0,0.0,0.0,0.0,0.0,0.0,0.0,0.0,0.0,0.0,0.0,0.0,0.0,0.0,0.0,0.0,0.0,0.0,0.0,0.0,0.0,0.0,0.0,0.0,0.0,0.0,0.0,5.3979,0.0,0.0,0.0,0.0,0.0,0.0,0.0,0.0,0.0,0.0,0.0,0.0,0.0,0.0,0.0,0.0,0.0,0.0,0.0,0.0,0.0,0.0,0.0,0.0,0.0,0.0,0.0,0.0,0.0,0.0,0.0,0.0,0.0,0.0,0.0,0.0,0.0,0.0,0.0,0.0,6.3701,6.8441,7.2217,7.4252,7.2915,7.2393,7.3615,7.2173,7.0003,6.7246,6.4125,0.0,0.0,0.0,0.0,0.0,0.0,0.0,0.0,0.0,0.0,0.0,0.0,0.0,0.0,0.0,0.0,0.0,0.0,0.0,0.0,0.0,0.0,0.0,0.0,0.0,0.0,0.0,0.0,0.0,0.0,0.0,0.0,0.0,0.0,0.0,0.0,0.0,0.0,0.0,0.0,0.0,0.0,0.0,0.0,0.0,0.0,0.0,0.0,0.0,0.0,0.0,0.0,0.0,0.0,0.0,0.0,0.0,0.0,0.0,4.9909,0.0,0.0,0.0,0.0,0.0,0.0,0.0,0.0,0.0,0.0,0.0,0.0,0.0,0.0,0.0,0.0,0.0,0.0,0.0,0.0,0.0,0.0,0.0,0.0,0.0,0.0,0.0,0.0,0.0,0.0,0.0,0.0,0.0,0.0,0.0,0.0,0.0,0.0,0.0,0.0,0.0,6.3258,6.7212,7.0813,7.41,7.2083,7.1033,7.24,7.0958,6.7765,6.26,6.0923,0.0,0.0,0.0,0.0,0.0,0.0,0.0,0.0,0.0,0.0,0.0,0.0,0.0,0.0,0.0,0.0,0.0,0.0,0.0,0.0,0.0,0.0,0.0,0.0,0.0,0.0,0.0,0.0,0.0,0.0,0.0,0.0,0.0,0.0,0.0,0.0,0.0,0.0,0.0,0.0,0.0,0.0,0.0,0.0,0.0,0.0,0.0,0.0,0.0,0.0,0.0,0.0,0.0,0.0,0.0,0.0,0.0,0.0,0.0,0.0,0.0,0.0,0.0,0.0,0.0,0.0,0.0,0.0,0.0,0.0,0.0,0.0,0.0,0.0,0.0,0.0,0.0,0.0,0.0,0.0,0.0,0.0,0.0,0.0,0.0,0.0,0.0,0.0,0.0,0.0,0.0,0.0,0.0,0.0,0.0,0.0,0.0,0.0,0.0,0.0,0.0,6.1779,6.7631,7.2228,7.4252,7.4291,7.3716,7.259,7.0958,6.7845,6.287,0.0,0.0,0.0,0.0,0.0,0.0,0.0,0.0,0.0,0.0,0.0,0.0,0.0,0.0,0.0,0.0,0.0,0.0,0.0,0.0,0.0,0.0,0.0,0.0,0.0,0.0,0.0,0.0,0.0,0.0,0.0,0.0,0.0,0.0,0.0,0.0,0.0,0.0,0.0,0.0,0.0,0.0,0.0,0.0,0.0,0.0,0.0,0.0,0.0,0.0,0.0,0.0,0.0,0.0,0.0,0.0,0.0,0.0,0.0,0.0,0.0,0.0,0.0,0.0,0.0,0.0,0.0,0.0,0.0,0.0,0.0,0.0,0.0,0.0,0.0,0.0,0.0,0.0,0.0,0.0,0.0,0.0,0.0,0.0,0.0,0.0,0.0,0.0,0.0,0.0,0.0,0.0,0.0,0.0,0.0,0.0,0.0,0.0,0.0,0.0,0.0,0.0,6.1432,6.682,7.1314,7.4146,7.2829,7.1527,7.1034,6.9439,6.5453,5.8467,0.0,0.0,0.0,0.0,0.0,0.0,0.0,0.0,0.0,0.0,0.0,0.0,0.0,0.0,0.0,0.0,0.0,0.0,0.0,0.0,0.0,0.0,0.0,0.0,0.0,0.0,0.0,0.0,0.0,0.0,0.0,0.0,0.0,0.0,0.0,0.0,0.0,0.0,0.0,0.0,0.0,0.0,0.0,0.0,0.0,0.0,0.0,0.0,0.0,0.0,0.0,0.0,0.0,0.0,0.0,0.0,0.0,0.0,0.0,0.0,0.0,0.0,0.0,0.0,0.0,0.0,0.0,0.0,0.0,0.0,0.0,0.0,0.0,0.0,0.0,0.0,0.0,0.0,0.0,0.0,0.0,0.0,0.0,0.0,0.0,0.0,0.0,0.0,0.0,0.0,0.0,0.0,0.0,0.0,0.0,0.0,0.0,0.0,0.0,0.0,0.0,0.0,6.1425,6.6669,7.1098,7.4115,7.2488,7.0882,7.0046,6.8414,6.3896,5.5544,0.0,0.0,0.0,0.0,0.0,0.0,0.0,0.0,0.0,0.0,0.0,0.0,0.0,0.0,0.0,0.0,0.0,0.0,0.0,0.0,0.0,0.0,0.0,0.0,0.0,0.0,0.0,0.0,0.0,0.0,0.0,0.0,0.0,0.0,0.0,0.0,0.0,0.0,0.0,0.0,0.0,0.0,0.0,0.0,0.0,0.0,0.0,0.0,0.0,0.0,0.0,0.0,0.0,0.0,0.0,0.0,0.0,0.0,0.0,0.0,0.0,0.0,0.0,0.0,0.0,0.0,0.0,0.0,0.0,0.0,0.0,0.0,0.0,0.0,0.0,0.0,0.0,0.0,0.0,0.0,0.0,0.0,0.0,0.0,0.0,0.0,0.0,0.0,0.0,0.0,0.0,0.0,0.0,0.0,0.0,0.0,0.0,0.0,0.0,0.0,0.0,0.0,6.1552,6.7687,7.2408,7.4266,7.4534,7.3343,7.0236,6.8414,6.3896,0.0,0.0,0.0,0.0,0.0,0.0,0.0,0.0,0.0,0.0,0.0,0.0,0.0,0.0,0.0,0.0,0.0,0.0,0.0,0.0,0.0,0.0,0.0,0.0,0.0,0.0,0.0,0.0,0.0,0.0,0.0,0.0,0.0,0.0,0.0,0.0,0.0,0.0,0.0,0.0,0.0,0.0,0.0,0.0,0.0,0.0,0.0,0.0,0.0,0.0,0.0,0.0,0.0,0.0,0.0,0.0,0.0,0.0,0.0,0.0,0.0,0.0,0.0,0.0,0.0,0.0,0.0,0.0,0.0,0.0,0.0,0.0,0.0,0.0,0.0,0.0,0.0,0.0,0.0,0.0,0.0,0.0,0.0,0.0,0.0,0.0,0.0,0.0,0.0,0.0,0.0,0.0,0.0,0.0,0.0,0.0,0.0,0.0,0.0,0.0,0.0,0.0,0.0,5.9564,6.4111,6.7917,7.0688,7.127,7.0573,6.8452,6.6706,6.3137,5.71,0.0,0.0,0.0,0.0,0.0,0.0,0.0,0.0,0.0,0.0,0.0,0.0,0.0,0.0,0.0,0.0,0.0,0.0,0.0,0.0,0.0,0.0,0.0,0.0,0.0,0.0,0.0,0.0,0.0,0.0,0.0,0.0,0.0,0.0,0.0,0.0,0.0,0.0,0.0,0.0,0.0,0.0,0.0,0.0,0.0,0.0,0.0,0.0,0.0,0.0,0.0,0.0,0.0,0.0,0.0,0.0,0.0,0.0,0.0,0.0,0.0,0.0,0.0,0.0,0.0,0.0,0.0,0.0,0.0,0.0,0.0,0.0,0.0,0.0,0.0,0.0,0.0,0.0,0.0,0.0,0.0,0.0,0.0,0.0,0.0,0.0,0.0,0.0,0.0,0.0,0.0,0.0,0.0,0.0,0.0,0.0,0.0,0.0,0.0,0.0,0.0,0.0,0.0,6.2992,6.6502,6.9106,6.9711,6.9244,6.7579,6.5908,6.2795,5.786,0.0,0.0,0.0,0.0,0.0,0.0,0.0,0.0,0.0,0.0,0.0,0.0,0.0,0.0,0.0,0.0,0.0,0.0,0.0,0.0,0.0,0.0,0.0,0.0,0.0,0.0,0.0,0.0,0.0,0.0,0.0,0.0,0.0,0.0,0.0,0.0,0.0,0.0,0.0,0.0,0.0,0.0,0.0,0.0,0.0,0.0,0.0,0.0,0.0,0.0,0.0,0.0,0.0,0.0,0.0,0.0,0.0,0.0,0.0,0.0,0.0,0.0,0.0,0.0,0.0,0.0,0.0,0.0,0.0,0.0,0.0,0.0,0.0,0.0,0.0,0.0,0.0,0.0,0.0,0.0,0.0,0.0,0.0,0.0,0.0,0.0,0.0,0.0,0.0,0.0,0.0,0.0,0.0,0.0,0.0,0.0,0.0,0.0,0.0,0.0,0.0,0.0,0.0,6.3786,6.7448,6.9232,6.9664,6.9217,6.7731,6.5984,6.2871,5.8011,5.6037,0.0,0.0,0.0,0.0,0.0,0.0,0.0,0.0,0.0,0.0,0.0,0.0,0.0,0.0,0.0,0.0,0.0,0.0,0.0,0.0,0.0,0.0,0.0,0.0,0.0,0.0,0.0,0.0,0.0,0.0,0.0,0.0,0.0,0.0,0.0,0.0,0.0,0.0,0.0,0.0,0.0,0.0,0.0,0.0,0.0,0.0,0.0,0.0,0.0,0.0,0.0,0.0,0.0,0.0,0.0,0.0,0.0,0.0,0.0,0.0,0.0,0.0,0.0,0.0,0.0,0.0,0.0,0.0,0.0,0.0,0.0,0.0,0.0,0.0,0.0,0.0,0.0,0.0,0.0,0.0,0.0,0.0,0.0,0.0,0.0,0.0,0.0,0.0,0.0,0.0,0.0,0.0,0.0,0.0,0.0,0.0,0.0,0.0,0.0,0.0,0.0,0.0,6.2705,6.5067,6.9222,6.9829,6.9779,6.9401,6.663,6.3365,5.9682,5.6645,0.0,0.0,0.0,0.0,0.0,0.0,0.0,0.0,0.0,0.0,0.0,0.0,0.0,0.0,0.0,0.0,0.0,0.0,0.0,0.0,0.0,0.0,0.0,0.0,0.0,0.0,0.0,0.0,0.0,0.0,0.0,0.0,0.0,0.0,0.0,0.0,0.0,0.0,0.0,0.0,0.0,0.0,0.0,0.0,0.0,0.0,0.0,0.0,0.0,0.0,0.0,0.0,0.0,0.0,0.0,0.0,0.0,0.0,0.0,0.0,0.0,0.0,0.0,0.0,0.0,0.0,0.0,0.0,0.0,0.0,0.0,0.0,0.0,0.0,0.0,0.0,0.0,0.0,0.0,0.0,0.0,0.0,0.0,0.0,0.0,0.0,0.0,0.0,0.0,0.0,0.0,0.0,0.0,0.0,0.0,0.0,0.0,0.0,0.0,0.0,0.0,0.0,5.6992,6.1711,6.899,6.9824,6.9925,6.9971,6.6857,6.3516,6.0289,5.6831,0.0,0.0,0.0,0.0,0.0,0.0,0.0,0.0,0.0,0.0,0.0,0.0,0.0,0.0,0.0,0.0,0.0,0.0,0.0,0.0,0.0,0.0,0.0,0.0,0.0,0.0,0.0,0.0,0.0,0.0,0.0,0.0,0.0,0.0,0.0,0.0,0.0,0.0,0.0,0.0,0.0,0.0,0.0,0.0,0.0,0.0,0.0,0.0,0.0,0.0,0.0,0.0,0.0,0.0,0.0,0.0,0.0,0.0,0.0,0.0,0.0,0.0,0.0,0.0,0.0,0.0,0.0,0.0,0.0,0.0,0.0,0.0,0.0,0.0,0.0,0.0,0.0,0.0,0.0,0.0,0.0,0.0,0.0,0.0,0.0,0.0,0.0,0.0,0.0,0.0,0.0,0.0,0.0,0.0,0.0,0.0,0.0,0.0,0.0,0.0,0.0,0.0,0.0,5.8356,6.7716,6.9351,6.9869,6.997,6.6857,6.3516,6.0251,0.0,0.0,0.0,0.0,0.0,0.0,0.0,0.0,0.0,0.0,0.0,0.0,0.0,0.0,0.0,0.0,0.0,0.0,0.0,0.0,0.0,0.0,0.0,0.0,0.0,0.0,0.0,0.0,0.0,0.0,0.0,0.0,0.0,0.0,0.0,0.0,0.0,0.0,0.0,0.0,0.0,0.0,0.0,0.0,0.0,0.0,0.0,0.0,0.0,0.0,0.0,0.0,0.0,0.0,0.0,0.0,0.0,0.0,0.0,0.0,0.0,0.0,0.0,0.0,0.0,0.0,0.0,0.0,0.0,0.0,0.0,0.0,0.0,0.0,0.0,0.0,0.0,0.0,0.0,0.0,0.0,0.0,0.0,0.0,0.0,0.0,0.0,0.0,0.0,0.0,0.0,0.0,0.0,0.0,0.0,0.0,0.0,0.0,0.0,0.0,0.0,0.0,0.0,0.0,5.7101,6.3058,6.7463,6.997,6.9971,6.6857,6.3477,6.0113,0.0,0.0,0.0,0.0,0.0,0.0,0.0,0.0,0.0,0.0,0.0,0.0,0.0,0.0]}]]]